| time (UTC) | temp F | wind direction | speed MPH | gust MPH | rain 1hr in | rain 24hr in | rain mn in | humidity % | barometer mb |
| 20260901042203 | 71 | 0 | 0.0 | 4.0 | 0.00 | 0.00 | 0.00 | 29 | 1007.6 |
| 20260901042104 | 71 | 0 | 0.0 | 4.0 | 0.00 | 0.00 | 0.00 | 29 | 1007.6 |
| 20260901042004 | 71 | 106 | 1.0 | 4.0 | 0.00 | 0.00 | 0.00 | 29 | 1007.6 |
| 20260901041903 | 71 | 110 | 2.0 | 4.0 | 0.00 | 0.00 | 0.00 | 29 | 1007.6 |
| 20260901041804 | 71 | 118 | 1.0 | 3.0 | 0.00 | 0.00 | 0.00 | 28 | 1007.5 |
| 20260901041704 | 71 | 123 | 1.0 | 3.0 | 0.00 | 0.00 | 0.00 | 28 | 1007.5 |
| 20260901041603 | 72 | 123 | 1.0 | 3.0 | 0.00 | 0.00 | 0.00 | 28 | 1007.5 |
| 20260901041503 | 72 | 130 | 2.0 | 3.0 | 0.00 | 0.00 | 0.00 | 27 | 1007.5 |
| 20260901041404 | 72 | 131 | 2.0 | 3.0 | 0.00 | 0.00 | 0.00 | 27 | 1007.7 |
| 20260901041304 | 72 | 0 | 0.0 | 2.0 | 0.00 | 0.00 | 0.00 | 27 | 1007.6 |
| 20260901041203 | 72 | 0 | 0.0 | 2.0 | 0.00 | 0.00 | 0.00 | 27 | 1007.6 |
| 20260901041104 | 72 | 135 | 1.0 | 2.0 | 0.00 | 0.00 | 0.00 | 27 | 1007.6 |
| 20260901040603 | 73 | 156 | 1.0 | 4.0 | 0.00 | 0.00 | 0.00 | 25 | 1007.6 |
| 20260901040503 | 74 | 176 | 1.0 | 4.0 | 0.00 | 0.00 | 0.00 | 24 | 1007.6 |
| 20260901040404 | 74 | 191 | 1.0 | 5.0 | 0.00 | 0.00 | 0.00 | 24 | 1007.5 |
| 20260901040304 | 74 | 202 | 1.0 | 5.0 | 0.00 | 0.00 | 0.00 | 24 | 1007.5 |
| 20260901040204 | 74 | 209 | 1.0 | 5.0 | 0.00 | 0.00 | 0.00 | 24 | 1007.4 |
| 20260901040104 | 74 | 215 | 1.0 | 5.0 | 0.00 | 0.00 | 0.00 | 24 | 1007.5 |
| 20260901040003 | 74 | 219 | 1.0 | 5.0 | 0.00 | 0.00 | 0.00 | 24 | 1007.6 |
| 20260901035904 | 74 | 0 | 0.0 | 5.0 | 0.00 | 0.00 | 0.00 | 23 | 1007.5 |
| 20260901035804 | 74 | 229 | 2.0 | 5.0 | 0.00 | 0.00 | 0.00 | 23 | 1007.4 |
| 20260901035703 | 74 | 228 | 2.0 | 5.0 | 0.00 | 0.00 | 0.00 | 23 | 1007.5 |
| 20260901035603 | 74 | 229 | 2.0 | 5.0 | 0.00 | 0.00 | 0.00 | 23 | 1007.5 |
| 20260901035504 | 75 | 229 | 3.0 | 6.0 | 0.00 | 0.00 | 0.00 | 23 | 1007.4 |
| 20260901035403 | 75 | 228 | 3.0 | 6.0 | 0.00 | 0.00 | 0.00 | 23 | 1007.4 |
| 20260901035305 | 75 | 230 | 2.0 | 8.0 | 0.00 | 0.00 | 0.00 | 22 | 1007.5 |
| 20260901035204 | 75 | 239 | 2.0 | 9.0 | 0.00 | 0.00 | 0.00 | 22 | 1007.4 |
| 20260901035103 | 75 | 249 | 2.0 | 9.0 | 0.00 | 0.00 | 0.00 | 22 | 1007.4 |
| 20260901035004 | 76 | 260 | 2.0 | 9.0 | 0.00 | 0.00 | 0.00 | 22 | 1007.4 |
| 20260901034904 | 76 | 259 | 2.0 | 9.0 | 0.00 | 0.00 | 0.00 | 22 | 1007.4 |
| 20260901034803 | 76 | 256 | 2.0 | 9.0 | 0.00 | 0.00 | 0.00 | 22 | 1007.4 |
| 20260901034704 | 76 | 261 | 2.0 | 9.0 | 0.00 | 0.00 | 0.00 | 22 | 1007.3 |
| 20260901034604 | 76 | 262 | 2.0 | 9.0 | 0.00 | 0.00 | 0.00 | 22 | 1007.4 |
| 20260901034504 | 76 | 261 | 3.0 | 9.0 | 0.00 | 0.00 | 0.00 | 22 | 1007.4 |
| 20260901034403 | 76 | 268 | 3.0 | 10.0 | 0.00 | 0.00 | 0.00 | 22 | 1007.4 |
| 20260901034304 | 76 | 266 | 5.0 | 10.0 | 0.00 | 0.00 | 0.00 | 22 | 1007.4 |
| 20260901034204 | 76 | 254 | 8.0 | 11.0 | 0.00 | 0.00 | 0.00 | 22 | 1007.3 |
| 20260901034104 | 76 | 247 | 4.0 | 11.0 | 0.00 | 0.00 | 0.00 | 22 | 1007.4 |
| 20260901034004 | 75 | 238 | 4.0 | 11.0 | 0.00 | 0.00 | 0.00 | 22 | 1007.4 |
| 20260901033904 | 75 | 236 | 4.0 | 11.0 | 0.00 | 0.00 | 0.00 | 22 | 1007.4 |
| 20260901033804 | 75 | 235 | 4.0 | 11.0 | 0.00 | 0.00 | 0.00 | 22 | 1007.4 |
| 20260901033704 | 75 | 236 | 5.0 | 11.0 | 0.00 | 0.00 | 0.00 | 23 | 1007.4 |
| 20260901033203 | 75 | 233 | 7.0 | 11.0 | 0.00 | 0.00 | 0.00 | 23 | 1007.4 |
| 20260901033103 | 75 | 234 | 4.0 | 9.0 | 0.00 | 0.00 | 0.00 | 23 | 1007.3 |
| 20260901033004 | 75 | 234 | 4.0 | 9.0 | 0.00 | 0.00 | 0.00 | 23 | 1007.3 |
| 20260901032904 | 75 | 236 | 4.0 | 9.0 | 0.00 | 0.00 | 0.00 | 24 | 1007.4 |
| 20260901032803 | 75 | 239 | 6.0 | 9.0 | 0.00 | 0.00 | 0.00 | 24 | 1007.4 |
| 20260901032703 | 75 | 236 | 4.0 | 9.0 | 0.00 | 0.00 | 0.00 | 24 | 1007.4 |
| 20260901032604 | 74 | 235 | 5.0 | 9.0 | 0.00 | 0.00 | 0.00 | 24 | 1007.3 |
| 20260901032504 | 74 | 232 | 5.0 | 9.0 | 0.00 | 0.00 | 0.00 | 24 | 1007.4 |
| 20260901032403 | 74 | 238 | 6.0 | 9.0 | 0.00 | 0.00 | 0.00 | 24 | 1007.2 |
| 20260901032306 | 74 | 253 | 1.0 | 4.0 | 0.00 | 0.00 | 0.00 | 25 | 1007.3 |
| 20260901032204 | 74 | 269 | 1.0 | 4.0 | 0.00 | 0.00 | 0.00 | 25 | 1007.3 |
| 20260901032104 | 74 | 254 | 1.0 | 4.0 | 0.00 | 0.00 | 0.00 | 25 | 1007.3 |
| 20260901032004 | 74 | 328 | 2.0 | 4.0 | 0.00 | 0.00 | 0.00 | 25 | 1007.4 |
| 20260901031904 | 75 | 12 | 1.0 | 4.0 | 0.00 | 0.00 | 0.00 | 25 | 1007.3 |
| 20260901031803 | 75 | 32 | 1.0 | 4.0 | 0.00 | 0.00 | 0.00 | 25 | 1007.3 |
| 20260901031703 | 75 | 0 | 0.0 | 4.0 | 0.00 | 0.00 | 0.00 | 25 | 1007.3 |
| 20260901031604 | 75 | 0 | 0.0 | 4.0 | 0.00 | 0.00 | 0.00 | 25 | 1007.3 |
| 20260901031104 | 75 | 36 | 2.0 | 3.0 | 0.00 | 0.00 | 0.00 | 25 | 1007.2 |
| 20260901031003 | 75 | 51 | 2.0 | 3.0 | 0.00 | 0.00 | 0.00 | 25 | 1007.4 |
| 20260901030904 | 75 | 53 | 1.0 | 2.0 | 0.00 | 0.00 | 0.00 | 25 | 1007.3 |
| 20260901030803 | 75 | 0 | 0.0 | 2.0 | 0.00 | 0.00 | 0.00 | 25 | 1007.2 |
| 20260901030704 | 76 | 0 | 0.0 | 2.0 | 0.00 | 0.00 | 0.00 | 24 | 1007.2 |
| 20260901030604 | 76 | 0 | 0.0 | 2.0 | 0.00 | 0.00 | 0.00 | 24 | 1007.2 |
| 20260901030503 | 76 | 0 | 0.0 | 2.0 | 0.00 | 0.00 | 0.00 | 24 | 1007.1 |
| 20260901030403 | 76 | 0 | 0.0 | 2.0 | 0.00 | 0.00 | 0.00 | 24 | 1007.2 |
| 20260901030304 | 76 | 0 | 0.0 | 2.0 | 0.00 | 0.00 | 0.00 | 24 | 1007.2 |
| 20260901030204 | 76 | 0 | 0.0 | 2.0 | 0.00 | 0.00 | 0.00 | 24 | 1007.2 |
| 20260901030103 | 76 | 0 | 0.0 | 2.0 | 0.00 | 0.00 | 0.00 | 24 | 1007.1 |
| 20260901030004 | 76 | 0 | 0.0 | 3.0 | 0.00 | 0.00 | 0.00 | 24 | 1007.2 |
| 20260901025904 | 76 | 0 | 0.0 | 7.0 | 0.00 | 0.00 | 0.00 | 24 | 1007.1 |
| 20260901025804 | 76 | 0 | 0.0 | 7.0 | 0.00 | 0.00 | 0.00 | 24 | 1007.2 |
| 20260901025703 | 76 | 0 | 0.0 | 7.0 | 0.00 | 0.00 | 0.00 | 24 | 1007.2 |
| 20260901025603 | 76 | 0 | 0.0 | 8.0 | 0.00 | 0.00 | 0.00 | 24 | 1007.1 |
| 20260901025404 | 76 | 275 | 1.0 | 11.0 | 0.00 | 0.00 | 0.00 | 24 | 1007.0 |
| 20260901025306 | 77 | 274 | 1.0 | 11.0 | 0.00 | 0.00 | 0.00 | 24 | 1007.0 |
| 20260901025204 | 77 | 271 | 1.0 | 14.0 | 0.00 | 0.00 | 0.00 | 24 | 1007.0 |
| 20260901025104 | 77 | 272 | 1.0 | 14.0 | 0.00 | 0.00 | 0.00 | 24 | 1007.0 |
| 20260901025004 | 77 | 272 | 1.0 | 14.0 | 0.00 | 0.00 | 0.00 | 24 | 1007.1 |
| 20260901024904 | 77 | 271 | 4.0 | 14.0 | 0.00 | 0.00 | 0.00 | 24 | 1007.0 |
| 20260901024803 | 77 | 272 | 2.0 | 14.0 | 0.00 | 0.00 | 0.00 | 24 | 1007.0 |
| 20260901024703 | 77 | 273 | 4.0 | 14.0 | 0.00 | 0.00 | 0.00 | 24 | 1007.1 |
| 20260901024603 | 77 | 273 | 5.0 | 14.0 | 0.00 | 0.00 | 0.00 | 24 | 1007.0 |
| 20260901024504 | 77 | 273 | 7.0 | 14.0 | 0.00 | 0.00 | 0.00 | 24 | 1007.1 |
| 20260901024404 | 77 | 273 | 6.0 | 14.0 | 0.00 | 0.00 | 0.00 | 24 | 1006.9 |
| 20260901024303 | 77 | 273 | 8.0 | 14.0 | 0.00 | 0.00 | 0.00 | 23 | 1007.1 |
| 20260901024203 | 77 | 274 | 11.0 | 14.0 | 0.00 | 0.00 | 0.00 | 23 | 1007.0 |
| 20260901024104 | 77 | 272 | 8.0 | 14.0 | 0.00 | 0.00 | 0.00 | 23 | 1007.0 |
| 20260901024004 | 77 | 270 | 9.0 | 14.0 | 0.00 | 0.00 | 0.00 | 23 | 1007.0 |
| 20260901023903 | 77 | 270 | 10.0 | 14.0 | 0.00 | 0.00 | 0.00 | 23 | 1006.9 |
| 20260901023804 | 78 | 272 | 6.0 | 11.0 | 0.00 | 0.00 | 0.00 | 23 | 1006.9 |
| 20260901023704 | 78 | 272 | 3.0 | 5.0 | 0.00 | 0.00 | 0.00 | 23 | 1007.1 |
| 20260901023603 | 78 | 272 | 3.0 | 7.0 | 0.00 | 0.00 | 0.00 | 23 | 1007.1 |
| 20260901023504 | 78 | 272 | 3.0 | 7.0 | 0.00 | 0.00 | 0.00 | 23 | 1007.1 |
| 20260901023404 | 78 | 272 | 3.0 | 7.0 | 0.00 | 0.00 | 0.00 | 23 | 1007.1 |
| 20260901023203 | 78 | 272 | 3.0 | 7.0 | 0.00 | 0.00 | 0.00 | 23 | 1007.2 |
| 20260901023104 | 78 | 272 | 3.0 | 7.0 | 0.00 | 0.00 | 0.00 | 23 | 1007.2 |
| 20260901023004 | 78 | 276 | 3.0 | 7.0 | 0.00 | 0.00 | 0.00 | 23 | 1007.1 |
| 20260901022903 | 78 | 277 | 3.0 | 7.0 | 0.00 | 0.00 | 0.00 | 23 | 1007.1 |
| 20260901022803 | 78 | 275 | 2.0 | 8.0 | 0.00 | 0.00 | 0.00 | 23 | 1007.1 |
| 20260901022704 | 78 | 274 | 3.0 | 8.0 | 0.00 | 0.00 | 0.00 | 23 | 1007.0 |
| 20260901022604 | 78 | 274 | 4.0 | 8.0 | 0.00 | 0.00 | 0.00 | 23 | 1006.9 |
| 20260901022503 | 78 | 274 | 2.0 | 8.0 | 0.00 | 0.00 | 0.00 | 23 | 1006.9 |
| 20260901022404 | 78 | 274 | 2.0 | 8.0 | 0.00 | 0.00 | 0.00 | 23 | 1006.9 |
| 20260901022306 | 78 | 274 | 4.0 | 8.0 | 0.00 | 0.00 | 0.00 | 23 | 1006.9 |
| 20260901022203 | 78 | 274 | 4.0 | 8.0 | 0.00 | 0.00 | 0.00 | 23 | 1007.0 |
| 20260901022103 | 78 | 274 | 3.0 | 8.0 | 0.00 | 0.00 | 0.00 | 22 | 1007.0 |
| 20260901022004 | 78 | 270 | 4.0 | 8.0 | 0.00 | 0.00 | 0.00 | 22 | 1006.8 |
| 20260901021904 | 79 | 272 | 5.0 | 12.0 | 0.00 | 0.00 | 0.00 | 22 | 1006.9 |
| 20260901021803 | 79 | 275 | 4.0 | 12.0 | 0.00 | 0.00 | 0.00 | 22 | 1006.9 |
| 20260901021703 | 79 | 275 | 4.0 | 12.0 | 0.00 | 0.00 | 0.00 | 22 | 1006.9 |
| 20260901021604 | 79 | 278 | 2.0 | 12.0 | 0.00 | 0.00 | 0.00 | 22 | 1006.8 |
| 20260901021504 | 79 | 278 | 2.0 | 12.0 | 0.00 | 0.00 | 0.00 | 22 | 1006.9 |
| 20260901021403 | 79 | 277 | 4.0 | 12.0 | 0.00 | 0.00 | 0.00 | 22 | 1006.9 |
| 20260901021304 | 79 | 277 | 5.0 | 12.0 | 0.00 | 0.00 | 0.00 | 21 | 1006.9 |
| 20260901021204 | 79 | 281 | 4.0 | 12.0 | 0.00 | 0.00 | 0.00 | 21 | 1006.9 |
| 20260901021103 | 79 | 283 | 3.0 | 12.0 | 0.00 | 0.00 | 0.00 | 21 | 1006.9 |
| 20260901021003 | 79 | 287 | 5.0 | 12.0 | 0.00 | 0.00 | 0.00 | 21 | 1006.9 |
| 20260901020904 | 79 | 285 | 8.0 | 12.0 | 0.00 | 0.00 | 0.00 | 21 | 1006.9 |
| 20260901020804 | 79 | 284 | 4.0 | 11.0 | 0.00 | 0.00 | 0.00 | 21 | 1006.8 |
| 20260901020703 | 79 | 288 | 5.0 | 11.0 | 0.00 | 0.00 | 0.00 | 21 | 1006.8 |
| 20260901020603 | 80 | 286 | 6.0 | 11.0 | 0.00 | 0.00 | 0.00 | 21 | 1006.8 |
| 20260901020504 | 80 | 286 | 5.0 | 11.0 | 0.00 | 0.00 | 0.00 | 21 | 1006.8 |
| 20260901020403 | 80 | 286 | 4.0 | 11.0 | 0.00 | 0.00 | 0.00 | 21 | 1006.7 |
| 20260901020303 | 80 | 286 | 6.0 | 11.0 | 0.00 | 0.00 | 0.00 | 20 | 1006.7 |
| 20260901020203 | 80 | 281 | 6.0 | 13.0 | 0.00 | 0.00 | 0.00 | 20 | 1006.7 |
| 20260901020104 | 80 | 279 | 4.0 | 13.0 | 0.00 | 0.00 | 0.00 | 20 | 1006.7 |
| 20260901020004 | 80 | 275 | 4.0 | 13.0 | 0.00 | 0.00 | 0.00 | 20 | 1006.7 |
| 20260901015804 | 81 | 277 | 4.0 | 15.0 | 0.00 | 0.00 | 0.00 | 19 | 1006.7 |
| 20260901015704 | 81 | 275 | 5.0 | 15.0 | 0.00 | 0.00 | 0.00 | 19 | 1006.7 |
| 20260901015603 | 81 | 273 | 5.0 | 15.0 | 0.00 | 0.00 | 0.00 | 19 | 1006.7 |
| 20260901015504 | 81 | 273 | 7.0 | 15.0 | 0.00 | 0.00 | 0.00 | 19 | 1006.7 |
| 20260901015403 | 81 | 273 | 6.0 | 15.0 | 0.00 | 0.00 | 0.00 | 18 | 1006.7 |
| 20260901015305 | 81 | 277 | 8.0 | 15.0 | 0.00 | 0.00 | 0.00 | 18 | 1006.7 |
| 20260901015204 | 81 | 277 | 8.0 | 15.0 | 0.00 | 0.00 | 0.00 | 18 | 1006.7 |
| 20260901015104 | 82 | 278 | 8.0 | 15.0 | 0.00 | 0.00 | 0.00 | 18 | 1006.6 |
| 20260901015004 | 82 | 278 | 8.0 | 15.0 | 0.00 | 0.00 | 0.00 | 18 | 1006.7 |
| 20260901014903 | 82 | 278 | 9.0 | 15.0 | 0.00 | 0.00 | 0.00 | 18 | 1006.7 |
| 20260901014804 | 82 | 273 | 8.0 | 15.0 | 0.00 | 0.00 | 0.00 | 17 | 1006.6 |
| 20260901014703 | 82 | 271 | 9.0 | 15.0 | 0.00 | 0.00 | 0.00 | 17 | 1006.7 |
| 20260901014604 | 83 | 271 | 7.0 | 15.0 | 0.00 | 0.00 | 0.00 | 17 | 1006.7 |
| 20260901014504 | 83 | 271 | 7.0 | 16.0 | 0.00 | 0.00 | 0.00 | 17 | 1006.7 |
| 20260901014403 | 83 | 266 | 6.0 | 16.0 | 0.00 | 0.00 | 0.00 | 17 | 1006.6 |
| 20260901014304 | 83 | 259 | 6.0 | 16.0 | 0.00 | 0.00 | 0.00 | 16 | 1006.6 |
| 20260901014204 | 83 | 256 | 5.0 | 16.0 | 0.00 | 0.00 | 0.00 | 16 | 1006.6 |
| 20260901014103 | 83 | 258 | 6.0 | 16.0 | 0.00 | 0.00 | 0.00 | 16 | 1006.6 |
| 20260901014003 | 83 | 258 | 5.0 | 16.0 | 0.00 | 0.00 | 0.00 | 16 | 1006.6 |
| 20260901013904 | 83 | 256 | 6.0 | 16.0 | 0.00 | 0.00 | 0.00 | 16 | 1006.7 |
| 20260901013703 | 83 | 260 | 8.0 | 16.0 | 0.00 | 0.00 | 0.00 | 15 | 1006.5 |
| 20260901013603 | 83 | 256 | 10.0 | 16.0 | 0.00 | 0.00 | 0.00 | 15 | 1006.6 |
| 20260901013504 | 83 | 258 | 13.0 | 16.0 | 0.00 | 0.00 | 0.00 | 15 | 1006.6 |
| 20260901013404 | 84 | 264 | 11.0 | 15.0 | 0.00 | 0.00 | 0.00 | 15 | 1006.4 |
| 20260901013303 | 84 | 262 | 9.0 | 15.0 | 0.00 | 0.00 | 0.00 | 15 | 1006.5 |
| 20260901013204 | 84 | 264 | 9.0 | 15.0 | 0.00 | 0.00 | 0.00 | 15 | 1006.7 |
| 20260901012503 | 84 | 266 | 8.0 | 15.0 | 0.00 | 0.00 | 0.00 | 15 | 1006.5 |
| 20260901012404 | 84 | 270 | 8.0 | 17.0 | 0.00 | 0.00 | 0.00 | 15 | 1006.5 |
| 20260901012306 | 84 | 276 | 11.0 | 17.0 | 0.00 | 0.00 | 0.00 | 15 | 1006.6 |
| 20260901012203 | 84 | 280 | 10.0 | 17.0 | 0.00 | 0.00 | 0.00 | 15 | 1006.5 |
| 20260901012104 | 84 | 283 | 10.0 | 17.0 | 0.00 | 0.00 | 0.00 | 15 | 1006.5 |
| 20260901012004 | 84 | 283 | 9.0 | 19.0 | 0.00 | 0.00 | 0.00 | 15 | 1006.5 |
| 20260901011903 | 84 | 285 | 8.0 | 19.0 | 0.00 | 0.00 | 0.00 | 15 | 1006.6 |
| 20260901011803 | 84 | 287 | 10.0 | 19.0 | 0.00 | 0.00 | 0.00 | 15 | 1006.5 |
| 20260901011704 | 84 | 284 | 10.0 | 19.0 | 0.00 | 0.00 | 0.00 | 15 | 1006.5 |
| 20260901011604 | 84 | 280 | 11.0 | 19.0 | 0.00 | 0.00 | 0.00 | 15 | 1006.6 |
| 20260901011503 | 84 | 274 | 11.0 | 19.0 | 0.00 | 0.00 | 0.00 | 15 | 1006.6 |
| 20260901011303 | 84 | 270 | 11.0 | 19.0 | 0.00 | 0.00 | 0.00 | 15 | 1006.5 |
| 20260901011204 | 84 | 270 | 11.0 | 19.0 | 0.00 | 0.00 | 0.00 | 15 | 1006.5 |
| 20260901011104 | 84 | 273 | 12.0 | 19.0 | 0.00 | 0.00 | 0.00 | 15 | 1006.5 |
| 20260901011004 | 84 | 281 | 12.0 | 19.0 | 0.00 | 0.00 | 0.00 | 15 | 1006.6 |
| 20260901010903 | 84 | 280 | 11.0 | 18.0 | 0.00 | 0.00 | 0.00 | 15 | 1006.6 |
| 20260901010704 | 84 | 281 | 15.0 | 18.0 | 0.00 | 0.00 | 0.00 | 15 | 1006.5 |
| 20260901010603 | 84 | 281 | 11.0 | 17.0 | 0.00 | 0.00 | 0.00 | 16 | 1006.6 |
| 20260901010504 | 84 | 283 | 11.0 | 17.0 | 0.00 | 0.00 | 0.00 | 16 | 1006.6 |
| 20260901010404 | 84 | 285 | 11.0 | 17.0 | 0.00 | 0.00 | 0.00 | 15 | 1006.6 |
| 20260901010304 | 85 | 284 | 9.0 | 17.0 | 0.00 | 0.00 | 0.00 | 15 | 1006.6 |
| 20260901010204 | 84 | 277 | 11.0 | 17.0 | 0.00 | 0.00 | 0.00 | 15 | 1006.5 |
| 20260901010103 | 85 | 273 | 11.0 | 17.0 | 0.00 | 0.00 | 0.00 | 14 | 1006.6 |
| 20260901010004 | 85 | 270 | 11.0 | 17.0 | 0.00 | 0.00 | 0.00 | 14 | 1006.6 |
| 20260901005904 | 85 | 270 | 11.0 | 17.0 | 0.00 | 0.00 | 0.00 | 14 | 1006.6 |
| 20260901005803 | 85 | 270 | 12.0 | 17.0 | 0.00 | 0.00 | 0.00 | 14 | 1006.5 |
| 20260901005703 | 85 | 274 | 12.0 | 20.0 | 0.00 | 0.00 | 0.00 | 14 | 1006.5 |
| 20260901005604 | 85 | 274 | 9.0 | 20.0 | 0.00 | 0.00 | 0.00 | 14 | 1006.6 |
| 20260901005504 | 85 | 274 | 7.0 | 20.0 | 0.00 | 0.00 | 0.00 | 14 | 1006.5 |
| 20260901005403 | 85 | 279 | 9.0 | 20.0 | 0.00 | 0.00 | 0.00 | 14 | 1006.5 |
| 20260901005306 | 85 | 280 | 7.0 | 20.0 | 0.00 | 0.00 | 0.00 | 14 | 1006.5 |
| 20260901005204 | 85 | 282 | 8.0 | 20.0 | 0.00 | 0.00 | 0.00 | 14 | 1006.5 |
| 20260901005104 | 85 | 288 | 6.0 | 20.0 | 0.00 | 0.00 | 0.00 | 14 | 1006.7 |
| 20260901005003 | 85 | 286 | 6.0 | 20.0 | 0.00 | 0.00 | 0.00 | 14 | 1006.5 |
| 20260901004903 | 85 | 290 | 8.0 | 20.0 | 0.00 | 0.00 | 0.00 | 14 | 1006.7 |
| 20260901004804 | 85 | 293 | 8.0 | 20.0 | 0.00 | 0.00 | 0.00 | 14 | 1006.6 |
| 20260901004304 | 86 | 285 | 8.0 | 17.0 | 0.00 | 0.00 | 0.00 | 13 | 1006.6 |
| 20260901004203 | 86 | 283 | 8.0 | 17.0 | 0.00 | 0.00 | 0.00 | 13 | 1006.5 |
| 20260901004104 | 86 | 282 | 10.0 | 17.0 | 0.00 | 0.00 | 0.00 | 13 | 1006.5 |
| 20260901004004 | 86 | 279 | 8.0 | 16.0 | 0.00 | 0.00 | 0.00 | 13 | 1006.6 |
| 20260901003903 | 86 | 277 | 9.0 | 16.0 | 0.00 | 0.00 | 0.00 | 13 | 1006.6 |
| 20260901003803 | 86 | 279 | 10.0 | 16.0 | 0.00 | 0.00 | 0.00 | 13 | 1006.6 |
| 20260901003704 | 86 | 282 | 8.0 | 16.0 | 0.00 | 0.00 | 0.00 | 13 | 1006.6 |
| 20260901003603 | 86 | 287 | 8.0 | 17.0 | 0.00 | 0.00 | 0.00 | 13 | 1006.7 |
| 20260901003504 | 86 | 294 | 8.0 | 17.0 | 0.00 | 0.00 | 0.00 | 12 | 1006.7 |
| 20260901003403 | 87 | 294 | 8.0 | 17.0 | 0.00 | 0.00 | 0.00 | 12 | 1006.7 |
| 20260901003303 | 87 | 295 | 8.0 | 21.0 | 0.00 | 0.00 | 0.00 | 12 | 1006.6 |
| 20260901003204 | 87 | 300 | 8.0 | 21.0 | 0.00 | 0.00 | 0.00 | 12 | 1006.7 |
| 20260901003103 | 87 | 300 | 10.0 | 21.0 | 0.00 | 0.00 | 0.00 | 12 | 1006.7 |
| 20260901003004 | 87 | 305 | 10.0 | 21.0 | 0.00 | 0.00 | 0.00 | 12 | 1006.7 |
| 20260901002904 | 87 | 307 | 8.0 | 21.0 | 0.00 | 0.00 | 0.00 | 12 | 1006.7 |
| 20260901002803 | 87 | 307 | 11.0 | 21.0 | 0.00 | 0.00 | 0.00 | 11 | 1006.7 |
| 20260901002704 | 87 | 307 | 11.0 | 21.0 | 0.00 | 0.00 | 0.00 | 12 | 1006.7 |
| 20260901002603 | 87 | 304 | 11.0 | 21.0 | 0.00 | 0.00 | 0.00 | 11 | 1006.6 |
| 20260901002503 | 87 | 299 | 8.0 | 21.0 | 0.00 | 0.00 | 0.00 | 11 | 1006.6 |
| 20260901002404 | 87 | 298 | 9.0 | 21.0 | 0.00 | 0.00 | 0.00 | 11 | 1006.5 |
| 20260901002305 | 87 | 300 | 11.0 | 21.0 | 0.00 | 0.00 | 0.00 | 11 | 1006.6 |
| 20260901002203 | 87 | 295 | 8.0 | 19.0 | 0.00 | 0.00 | 0.00 | 11 | 1006.6 |
| 20260901002003 | 87 | 284 | 10.0 | 19.0 | 0.00 | 0.00 | 0.00 | 10 | 1006.7 |
| 20260901001904 | 88 | 278 | 13.0 | 19.0 | 0.00 | 0.00 | 0.00 | 10 | 1006.7 |
| 20260901001803 | 88 | 272 | 12.0 | 17.0 | 0.00 | 0.00 | 0.00 | 10 | 1006.7 |
| 20260901001703 | 88 | 269 | 10.0 | 17.0 | 0.00 | 0.00 | 0.00 | 10 | 1006.6 |
| 20260901001604 | 88 | 268 | 10.0 | 16.0 | 0.00 | 0.00 | 0.00 | 10 | 1006.6 |
| 20260901001504 | 88 | 270 | 10.0 | 17.0 | 0.00 | 0.00 | 0.00 | 10 | 1006.6 |
| 20260901000803 | 88 | 283 | 9.0 | 17.0 | 0.00 | 0.00 | 0.00 | 10 | 1006.6 |
| 20260901000704 | 88 | 282 | 9.0 | 17.0 | 0.00 | 0.00 | 0.00 | 10 | 1006.6 |
| 20260901000604 | 88 | 281 | 11.0 | 17.0 | 0.00 | 0.00 | 0.00 | 10 | 1006.7 |
| 20260901000503 | 88 | 278 | 11.0 | 17.0 | 0.00 | 0.00 | 0.00 | 10 | 1006.5 |
| 20260901000304 | 89 | 284 | 11.0 | 17.0 | 0.00 | 0.00 | 0.00 | 10 | 1006.5 |
| 20260901000204 | 89 | 277 | 14.0 | 17.0 | 0.00 | 0.00 | 0.00 | 10 | 1006.5 |
| 20260901000103 | 89 | 275 | 10.0 | 17.0 | 0.00 | 0.00 | 0.00 | 10 | 1006.6 |
| 20260901000004 | 89 | 270 | 10.0 | 19.0 | 0.00 | 0.00 | 0.00 | 10 | 1006.6 |
| 20260831235904 | 89 | 270 | 11.0 | 19.0 | 0.00 | 0.00 | 0.00 | 10 | 1006.6 |
| 20260831235804 | 89 | 272 | 11.0 | 19.0 | 0.00 | 0.00 | 0.00 | 10 | 1006.6 |
| 20260831235703 | 89 | 272 | 8.0 | 19.0 | 0.00 | 0.00 | 0.00 | 10 | 1006.7 |
| 20260831235603 | 89 | 272 | 10.0 | 19.0 | 0.00 | 0.00 | 0.00 | 10 | 1006.6 |
| 20260831235503 | 89 | 272 | 9.0 | 19.0 | 0.00 | 0.00 | 0.00 | 10 | 1006.6 |
| 20260831235404 | 89 | 272 | 12.0 | 19.0 | 0.00 | 0.00 | 0.00 | 10 | 1006.6 |
| 20260831235306 | 89 | 270 | 10.0 | 19.0 | 0.00 | 0.00 | 0.00 | 10 | 1006.6 |
| 20260831235203 | 89 | 272 | 10.0 | 19.0 | 0.00 | 0.00 | 0.00 | 10 | 1006.6 |
| 20260831235104 | 89 | 273 | 11.0 | 19.0 | 0.00 | 0.00 | 0.00 | 10 | 1006.6 |
| 20260831235004 | 89 | 273 | 14.0 | 19.0 | 0.00 | 0.00 | 0.00 | 10 | 1006.5 |
| 20260831234903 | 89 | 271 | 10.0 | 17.0 | 0.00 | 0.00 | 0.00 | 10 | 1006.5 |
| 20260831234803 | 89 | 271 | 13.0 | 17.0 | 0.00 | 0.00 | 0.00 | 10 | 1006.5 |
| 20260831234704 | 89 | 273 | 8.0 | 16.0 | 0.00 | 0.00 | 0.00 | 10 | 1006.5 |
| 20260831234603 | 89 | 273 | 8.0 | 16.0 | 0.00 | 0.00 | 0.00 | 10 | 1006.5 |
| 20260831234503 | 89 | 273 | 8.0 | 18.0 | 0.00 | 0.00 | 0.00 | 10 | 1006.4 |
| 20260831234404 | 89 | 274 | 11.0 | 18.0 | 0.00 | 0.00 | 0.00 | 10 | 1006.5 |
| 20260831234304 | 89 | 277 | 7.0 | 18.0 | 0.00 | 0.00 | 0.00 | 10 | 1006.6 |
| 20260831234203 | 89 | 277 | 4.0 | 18.0 | 0.00 | 0.00 | 0.00 | 10 | 1006.5 |
| 20260831234103 | 89 | 277 | 6.0 | 18.0 | 0.00 | 0.00 | 0.00 | 10 | 1006.6 |
| 20260831234004 | 89 | 280 | 9.0 | 18.0 | 0.00 | 0.00 | 0.00 | 10 | 1006.6 |
| 20260831233903 | 89 | 282 | 8.0 | 18.0 | 0.00 | 0.00 | 0.00 | 10 | 1006.5 |
| 20260831233804 | 89 | 280 | 8.0 | 18.0 | 0.00 | 0.00 | 0.00 | 10 | 1006.6 |
| 20260831233704 | 89 | 278 | 9.0 | 18.0 | 0.00 | 0.00 | 0.00 | 10 | 1006.7 |
| 20260831233603 | 89 | 282 | 9.0 | 18.0 | 0.00 | 0.00 | 0.00 | 10 | 1006.6 |
| 20260831233503 | 89 | 284 | 14.0 | 18.0 | 0.00 | 0.00 | 0.00 | 10 | 1006.7 |
| 20260831233404 | 89 | 283 | 12.0 | 18.0 | 0.00 | 0.00 | 0.00 | 10 | 1006.7 |
| 20260831233303 | 89 | 277 | 13.0 | 18.0 | 0.00 | 0.00 | 0.00 | 10 | 1006.6 |
| 20260831233203 | 89 | 278 | 13.0 | 18.0 | 0.00 | 0.00 | 0.00 | 10 | 1006.8 |
| 20260831233104 | 89 | 278 | 8.0 | 19.0 | 0.00 | 0.00 | 0.00 | 10 | 1006.8 |
| 20260831233004 | 89 | 274 | 8.0 | 19.0 | 0.00 | 0.00 | 0.00 | 10 | 1006.7 |
| 20260831232903 | 89 | 272 | 7.0 | 19.0 | 0.00 | 0.00 | 0.00 | 10 | 1006.7 |
| 20260831232803 | 89 | 272 | 12.0 | 19.0 | 0.00 | 0.00 | 0.00 | 10 | 1006.7 |
| 20260831232704 | 89 | 273 | 8.0 | 19.0 | 0.00 | 0.00 | 0.00 | 10 | 1006.6 |
| 20260831232603 | 90 | 271 | 9.0 | 19.0 | 0.00 | 0.00 | 0.00 | 10 | 1006.7 |
| 20260831232504 | 90 | 270 | 9.0 | 19.0 | 0.00 | 0.00 | 0.00 | 10 | 1006.7 |
| 20260831232404 | 90 | 270 | 11.0 | 19.0 | 0.00 | 0.00 | 0.00 | 10 | 1006.7 |
| 20260831232305 | 90 | 273 | 9.0 | 19.0 | 0.00 | 0.00 | 0.00 | 10 | 1006.7 |
| 20260831232204 | 90 | 277 | 12.0 | 19.0 | 0.00 | 0.00 | 0.00 | 10 | 1006.6 |
| 20260831232104 | 90 | 276 | 11.0 | 19.0 | 0.00 | 0.00 | 0.00 | 10 | 1006.6 |
| 20260831231804 | 91 | 290 | 8.0 | 13.0 | 0.00 | 0.00 | 0.00 | 10 | 1006.6 |
| 20260831231703 | 91 | 289 | 8.0 | 13.0 | 0.00 | 0.00 | 0.00 | 10 | 1006.5 |
| 20260831231603 | 90 | 288 | 8.0 | 13.0 | 0.00 | 0.00 | 0.00 | 10 | 1006.6 |
| 20260831231504 | 90 | 289 | 8.0 | 13.0 | 0.00 | 0.00 | 0.00 | 10 | 1006.8 |
| 20260831231404 | 90 | 293 | 5.0 | 11.0 | 0.00 | 0.00 | 0.00 | 10 | 1006.7 |
| 20260831231203 | 90 | 284 | 3.0 | 11.0 | 0.00 | 0.00 | 0.00 | 10 | 1006.7 |
| 20260831231104 | 90 | 287 | 2.0 | 11.0 | 0.00 | 0.00 | 0.00 | 10 | 1006.6 |
| 20260831231004 | 90 | 288 | 3.0 | 11.0 | 0.00 | 0.00 | 0.00 | 10 | 1006.7 |
| 20260831230903 | 90 | 284 | 4.0 | 11.0 | 0.00 | 0.00 | 0.00 | 10 | 1006.8 |
| 20260831230803 | 90 | 278 | 5.0 | 11.0 | 0.00 | 0.00 | 0.00 | 10 | 1006.7 |
| 20260831230704 | 90 | 277 | 8.0 | 11.0 | 0.00 | 0.00 | 0.00 | 10 | 1006.9 |
| 20260831230603 | 90 | 280 | 6.0 | 11.0 | 0.00 | 0.00 | 0.00 | 10 | 1006.7 |
| 20260831230503 | 90 | 285 | 7.0 | 11.0 | 0.00 | 0.00 | 0.00 | 10 | 1006.7 |
| 20260831230404 | 90 | 288 | 4.0 | 10.0 | 0.00 | 0.00 | 0.00 | 10 | 1006.8 |
| 20260831230304 | 90 | 297 | 4.0 | 9.0 | 0.00 | 0.00 | 0.00 | 10 | 1006.8 |
| 20260831230205 | 90 | 302 | 3.0 | 9.0 | 0.00 | 0.00 | 0.00 | 10 | 1006.7 |
| 20260831230105 | 90 | 299 | 4.0 | 10.0 | 0.00 | 0.00 | 0.00 | 10 | 1006.8 |
| 20260831225505 | 90 | 281 | 5.0 | 14.0 | 0.00 | 0.00 | 0.00 | 10 | 1006.8 |
| 20260831225405 | 90 | 279 | 4.0 | 14.0 | 0.00 | 0.00 | 0.00 | 10 | 1006.9 |
| 20260831225306 | 90 | 277 | 4.0 | 14.0 | 0.00 | 0.00 | 0.00 | 10 | 1006.9 |
| 20260831225205 | 90 | 276 | 5.0 | 14.0 | 0.00 | 0.00 | 0.00 | 10 | 1006.9 |
| 20260831225105 | 90 | 280 | 7.0 | 14.0 | 0.00 | 0.00 | 0.00 | 10 | 1006.9 |
| 20260831225005 | 90 | 286 | 11.0 | 13.0 | 0.00 | 0.00 | 0.00 | 10 | 1006.9 |
| 20260831224905 | 90 | 296 | 8.0 | 13.0 | 0.00 | 0.00 | 0.00 | 10 | 1006.9 |
| 20260831224805 | 91 | 302 | 5.0 | 10.0 | 0.00 | 0.00 | 0.00 | 10 | 1007.0 |
| 20260831224705 | 91 | 307 | 4.0 | 11.0 | 0.00 | 0.00 | 0.00 | 10 | 1006.9 |
| 20260831224605 | 91 | 310 | 4.0 | 11.0 | 0.00 | 0.00 | 0.00 | 10 | 1006.9 |
| 20260831224505 | 91 | 311 | 4.0 | 11.0 | 0.00 | 0.00 | 0.00 | 10 | 1007.0 |
| 20260831224405 | 91 | 313 | 7.0 | 11.0 | 0.00 | 0.00 | 0.00 | 10 | 1007.0 |
| 20260831224304 | 91 | 313 | 2.0 | 11.0 | 0.00 | 0.00 | 0.00 | 10 | 1007.0 |
| 20260831224205 | 91 | 311 | 4.0 | 11.0 | 0.00 | 0.00 | 0.00 | 10 | 1007.0 |
| 20260831224105 | 91 | 312 | 5.0 | 11.0 | 0.00 | 0.00 | 0.00 | 10 | 1007.0 |
| 20260831224004 | 92 | 316 | 4.0 | 11.0 | 0.00 | 0.00 | 0.00 | 10 | 1007.0 |
| 20260831223905 | 92 | 315 | 4.0 | 11.0 | 0.00 | 0.00 | 0.00 | 10 | 1007.0 |
| 20260831223805 | 92 | 311 | 5.0 | 11.0 | 0.00 | 0.00 | 0.00 | 10 | 1007.1 |
| 20260831223205 | 91 | 321 | 2.0 | 7.0 | 0.00 | 0.00 | 0.00 | 10 | 1007.2 |
| 20260831223105 | 91 | 318 | 4.0 | 7.0 | 0.00 | 0.00 | 0.00 | 10 | 1007.2 |
| 20260831223005 | 91 | 305 | 4.0 | 8.0 | 0.00 | 0.00 | 0.00 | 10 | 1007.3 |
| 20260831222905 | 91 | 306 | 4.0 | 8.0 | 0.00 | 0.00 | 0.00 | 10 | 1007.3 |
| 20260831222805 | 91 | 315 | 2.0 | 9.0 | 0.00 | 0.00 | 0.00 | 10 | 1007.3 |
| 20260831222705 | 91 | 306 | 2.0 | 9.0 | 0.00 | 0.00 | 0.00 | 10 | 1007.3 |
| 20260831222605 | 91 | 295 | 2.0 | 10.0 | 0.00 | 0.00 | 0.00 | 10 | 1007.3 |
| 20260831222005 | 91 | 282 | 6.0 | 10.0 | 0.00 | 0.00 | 0.00 | 10 | 1007.3 |
| 20260831221904 | 90 | 277 | 6.0 | 10.0 | 0.00 | 0.00 | 0.00 | 10 | 1007.3 |
| 20260831221805 | 90 | 272 | 3.0 | 10.0 | 0.00 | 0.00 | 0.00 | 10 | 1007.4 |
| 20260831221705 | 90 | 270 | 7.0 | 10.0 | 0.00 | 0.00 | 0.00 | 10 | 1007.3 |
| 20260831221605 | 90 | 266 | 4.0 | 14.0 | 0.00 | 0.00 | 0.00 | 10 | 1007.3 |
| 20260831221505 | 90 | 266 | 4.0 | 14.0 | 0.00 | 0.00 | 0.00 | 10 | 1007.4 |
| 20260831221405 | 90 | 270 | 2.0 | 14.0 | 0.00 | 0.00 | 0.00 | 10 | 1007.5 |
| 20260831221305 | 90 | 272 | 2.0 | 14.0 | 0.00 | 0.00 | 0.00 | 10 | 1007.5 |
| 20260831221205 | 90 | 270 | 3.0 | 14.0 | 0.00 | 0.00 | 0.00 | 10 | 1007.5 |
| 20260831221104 | 90 | 268 | 4.0 | 14.0 | 0.00 | 0.00 | 0.00 | 10 | 1007.5 |
| 20260831220905 | 90 | 270 | 2.0 | 14.0 | 0.00 | 0.00 | 0.00 | 10 | 1007.5 |
| 20260831220804 | 90 | 262 | 6.0 | 14.0 | 0.00 | 0.00 | 0.00 | 10 | 1007.5 |
| 20260831220705 | 90 | 254 | 6.0 | 14.0 | 0.00 | 0.00 | 0.00 | 10 | 1007.5 |
| 20260831220605 | 90 | 254 | 8.0 | 14.0 | 0.00 | 0.00 | 0.00 | 10 | 1007.5 |
| 20260831220504 | 90 | 245 | 8.0 | 12.0 | 0.00 | 0.00 | 0.00 | 10 | 1007.6 |
| 20260831220305 | 91 | 228 | 4.0 | 10.0 | 0.00 | 0.00 | 0.00 | 10 | 1007.6 |
| 20260831220204 | 91 | 227 | 4.0 | 10.0 | 0.00 | 0.00 | 0.00 | 10 | 1007.6 |
| 20260831220105 | 91 | 221 | 2.0 | 10.0 | 0.00 | 0.00 | 0.00 | 10 | 1007.6 |
| 20260831220005 | 91 | 220 | 2.0 | 10.0 | 0.00 | 0.00 | 0.00 | 10 | 1007.7 |
| 20260831215805 | 91 | 224 | 6.0 | 10.0 | 0.00 | 0.00 | 0.00 | 10 | 1007.6 |
| 20260831215705 | 91 | 238 | 7.0 | 10.0 | 0.00 | 0.00 | 0.00 | 10 | 1007.7 |
| 20260831215605 | 91 | 243 | 2.0 | 8.0 | 0.00 | 0.00 | 0.00 | 10 | 1007.7 |
| 20260831215505 | 91 | 244 | 2.0 | 8.0 | 0.00 | 0.00 | 0.00 | 10 | 1007.8 |
| 20260831215405 | 91 | 239 | 4.0 | 8.0 | 0.00 | 0.00 | 0.00 | 10 | 1007.7 |
| 20260831214705 | 92 | 216 | 4.0 | 8.0 | 0.00 | 0.00 | 0.00 | 10 | 1007.7 |
| 20260831214604 | 92 | 209 | 4.0 | 8.0 | 0.00 | 0.00 | 0.00 | 10 | 1007.8 |
| 20260831214505 | 92 | 199 | 4.0 | 8.0 | 0.00 | 0.00 | 0.00 | 10 | 1007.9 |
| 20260831214405 | 92 | 183 | 3.0 | 8.0 | 0.00 | 0.00 | 0.00 | 10 | 1007.8 |
| 20260831214305 | 92 | 157 | 3.0 | 8.0 | 0.00 | 0.00 | 0.00 | 10 | 1007.8 |
| 20260831214204 | 92 | 141 | 3.0 | 8.0 | 0.00 | 0.00 | 0.00 | 10 | 1007.8 |
| 20260831214105 | 92 | 139 | 2.0 | 8.0 | 0.00 | 0.00 | 0.00 | 10 | 1007.8 |
| 20260831214005 | 92 | 127 | 1.0 | 8.0 | 0.00 | 0.00 | 0.00 | 10 | 1007.8 |
| 20260831213905 | 91 | 124 | 2.0 | 8.0 | 0.00 | 0.00 | 0.00 | 10 | 1007.8 |
| 20260831213804 | 91 | 123 | 2.0 | 8.0 | 0.00 | 0.00 | 0.00 | 10 | 1007.8 |
| 20260831213705 | 91 | 114 | 2.0 | 8.0 | 0.00 | 0.00 | 0.00 | 10 | 1007.8 |
| 20260831213605 | 91 | 102 | 2.0 | 8.0 | 0.00 | 0.00 | 0.00 | 10 | 1007.7 |
| 20260831213505 | 91 | 100 | 3.0 | 8.0 | 0.00 | 0.00 | 0.00 | 10 | 1007.8 |
| 20260831213404 | 91 | 98 | 5.0 | 8.0 | 0.00 | 0.00 | 0.00 | 10 | 1008.0 |
| 20260831213305 | 91 | 103 | 3.0 | 8.0 | 0.00 | 0.00 | 0.00 | 10 | 1007.9 |
| 20260831213205 | 91 | 0 | 0.0 | 8.0 | 0.00 | 0.00 | 0.00 | 10 | 1007.9 |
| 20260831213105 | 91 | 109 | 2.0 | 8.0 | 0.00 | 0.00 | 0.00 | 10 | 1008.0 |
| 20260831213004 | 91 | 110 | 2.0 | 8.0 | 0.00 | 0.00 | 0.00 | 10 | 1007.9 |
| 20260831212905 | 91 | 108 | 4.0 | 8.0 | 0.00 | 0.00 | 0.00 | 10 | 1008.0 |
| 20260831212805 | 92 | 110 | 3.0 | 8.0 | 0.00 | 0.00 | 0.00 | 10 | 1008.0 |
| 20260831212705 | 92 | 117 | 5.0 | 8.0 | 0.00 | 0.00 | 0.00 | 10 | 1008.0 |
| 20260831212604 | 92 | 128 | 7.0 | 8.0 | 0.00 | 0.00 | 0.00 | 10 | 1008.0 |
| 20260831212505 | 92 | 136 | 4.0 | 7.0 | 0.00 | 0.00 | 0.00 | 10 | 1008.0 |
| 20260831212405 | 92 | 142 | 3.0 | 6.0 | 0.00 | 0.00 | 0.00 | 10 | 1008.1 |
| 20260831212306 | 92 | 141 | 2.0 | 6.0 | 0.00 | 0.00 | 0.00 | 10 | 1008.0 |
| 20260831212205 | 92 | 146 | 3.0 | 6.0 | 0.00 | 0.00 | 0.00 | 10 | 1008.1 |
| 20260831212105 | 92 | 141 | 2.0 | 6.0 | 0.00 | 0.00 | 0.00 | 10 | 1008.1 |
| 20260831212004 | 92 | 140 | 2.0 | 6.0 | 0.00 | 0.00 | 0.00 | 10 | 1008.1 |
| 20260831211905 | 92 | 159 | 1.0 | 11.0 | 0.00 | 0.00 | 0.00 | 10 | 1008.1 |
| 20260831211805 | 92 | 153 | 1.0 | 11.0 | 0.00 | 0.00 | 0.00 | 10 | 1008.1 |
| 20260831211704 | 92 | 163 | 1.0 | 11.0 | 0.00 | 0.00 | 0.00 | 10 | 1008.1 |
| 20260831211605 | 91 | 183 | 2.0 | 11.0 | 0.00 | 0.00 | 0.00 | 10 | 1008.1 |
| 20260831211505 | 91 | 206 | 2.0 | 11.0 | 0.00 | 0.00 | 0.00 | 10 | 1008.2 |
| 20260831211404 | 91 | 208 | 1.0 | 11.0 | 0.00 | 0.00 | 0.00 | 10 | 1008.2 |
| 20260831211305 | 91 | 196 | 3.0 | 11.0 | 0.00 | 0.00 | 0.00 | 10 | 1008.2 |
| 20260831211205 | 90 | 195 | 2.0 | 11.0 | 0.00 | 0.00 | 0.00 | 10 | 1008.2 |
| 20260831211104 | 90 | 201 | 2.0 | 11.0 | 0.00 | 0.00 | 0.00 | 10 | 1008.2 |
| 20260831211004 | 90 | 204 | 2.0 | 11.0 | 0.00 | 0.00 | 0.00 | 10 | 1008.3 |
| 20260831210905 | 90 | 213 | 6.0 | 11.0 | 0.00 | 0.00 | 0.00 | 10 | 1008.2 |
| 20260831210805 | 90 | 219 | 3.0 | 6.0 | 0.00 | 0.00 | 0.00 | 10 | 1008.2 |
| 20260831210704 | 90 | 229 | 4.0 | 6.0 | 0.00 | 0.00 | 0.00 | 10 | 1008.2 |
| 20260831210605 | 90 | 256 | 3.0 | 8.0 | 0.00 | 0.00 | 0.00 | 10 | 1008.3 |
| 20260831210504 | 90 | 0 | 0.0 | 8.0 | 0.00 | 0.00 | 0.00 | 10 | 1008.3 |
| 20260831210405 | 90 | 261 | 2.0 | 8.0 | 0.00 | 0.00 | 0.00 | 10 | 1008.2 |
| 20260831210305 | 90 | 0 | 0.0 | 8.0 | 0.00 | 0.00 | 0.00 | 10 | 1008.2 |
| 20260831210205 | 90 | 0 | 0.0 | 8.0 | 0.00 | 0.00 | 0.00 | 10 | 1008.3 |
| 20260831210104 | 89 | 0 | 0.0 | 8.0 | 0.00 | 0.00 | 0.00 | 10 | 1008.3 |
| 20260831210005 | 89 | 0 | 0.0 | 8.0 | 0.00 | 0.00 | 0.00 | 10 | 1008.2 |
| 20260831205905 | 89 | 0 | 0.0 | 8.0 | 0.00 | 0.00 | 0.00 | 10 | 1008.3 |
| 20260831205805 | 89 | 235 | 1.0 | 8.0 | 0.00 | 0.00 | 0.00 | 10 | 1008.3 |
| 20260831205605 | 89 | 232 | 4.0 | 8.0 | 0.00 | 0.00 | 0.00 | 10 | 1008.2 |
| 20260831205505 | 89 | 225 | 3.0 | 8.0 | 0.00 | 0.00 | 0.00 | 10 | 1008.3 |
| 20260831205405 | 89 | 224 | 2.0 | 8.0 | 0.00 | 0.00 | 0.00 | 10 | 1008.3 |
| 20260831205306 | 89 | 226 | 4.0 | 8.0 | 0.00 | 0.00 | 0.00 | 10 | 1008.4 |
| 20260831205205 | 89 | 230 | 1.0 | 8.0 | 0.00 | 0.00 | 0.00 | 10 | 1008.3 |
| 20260831205005 | 89 | 222 | 2.0 | 8.0 | 0.00 | 0.00 | 0.00 | 10 | 1008.4 |
| 20260831204904 | 89 | 215 | 1.0 | 8.0 | 0.00 | 0.00 | 0.00 | 10 | 1008.4 |
| 20260831204805 | 89 | 227 | 2.0 | 8.0 | 0.00 | 0.00 | 0.00 | 10 | 1008.4 |
| 20260831204705 | 89 | 223 | 3.0 | 8.0 | 0.00 | 0.00 | 0.00 | 10 | 1008.3 |
| 20260831204604 | 90 | 213 | 6.0 | 8.0 | 0.00 | 0.00 | 0.00 | 10 | 1008.4 |
| 20260831204505 | 90 | 188 | 6.0 | 8.0 | 0.00 | 0.00 | 0.00 | 10 | 1008.4 |
| 20260831204405 | 90 | 130 | 3.0 | 6.0 | 0.00 | 0.00 | 0.00 | 10 | 1008.4 |
| 20260831204305 | 90 | 113 | 2.0 | 6.0 | 0.00 | 0.00 | 0.00 | 10 | 1008.4 |
| 20260831204204 | 90 | 102 | 2.0 | 6.0 | 0.00 | 0.00 | 0.00 | 10 | 1008.5 |
| 20260831204105 | 90 | 88 | 3.0 | 6.0 | 0.00 | 0.00 | 0.00 | 10 | 1008.5 |
| 20260831204005 | 89 | 0 | 0.0 | 6.0 | 0.00 | 0.00 | 0.00 | 10 | 1008.6 |
| 20260831203904 | 89 | 88 | 2.0 | 6.0 | 0.00 | 0.00 | 0.00 | 10 | 1008.4 |
| 20260831203804 | 89 | 94 | 2.0 | 6.0 | 0.00 | 0.00 | 0.00 | 10 | 1008.5 |
| 20260831203705 | 89 | 95 | 3.0 | 6.0 | 0.00 | 0.00 | 0.00 | 10 | 1008.5 |
| 20260831203605 | 89 | 0 | 0.0 | 6.0 | 0.00 | 0.00 | 0.00 | 10 | 1008.6 |
| 20260831203405 | 89 | 93 | 2.0 | 5.0 | 0.00 | 0.00 | 0.00 | 10 | 1008.7 |
| 20260831203305 | 89 | 91 | 2.0 | 5.0 | 0.00 | 0.00 | 0.00 | 10 | 1008.7 |
| 20260831203205 | 89 | 94 | 2.0 | 5.0 | 0.00 | 0.00 | 0.00 | 10 | 1008.7 |
| 20260831203105 | 89 | 100 | 2.0 | 5.0 | 0.00 | 0.00 | 0.00 | 10 | 1008.8 |
| 20260831203005 | 89 | 95 | 2.0 | 5.0 | 0.00 | 0.00 | 0.00 | 10 | 1008.8 |
| 20260831202905 | 89 | 92 | 3.0 | 5.0 | 0.00 | 0.00 | 0.00 | 10 | 1008.7 |
| 20260831202805 | 89 | 95 | 2.0 | 5.0 | 0.00 | 0.00 | 0.00 | 10 | 1008.8 |
| 20260831202705 | 89 | 111 | 2.0 | 5.0 | 0.00 | 0.00 | 0.00 | 10 | 1008.8 |
| 20260831202605 | 89 | 124 | 2.0 | 5.0 | 0.00 | 0.00 | 0.00 | 10 | 1008.8 |
| 20260831202505 | 89 | 141 | 3.0 | 5.0 | 0.00 | 0.00 | 0.00 | 10 | 1008.8 |
| 20260831202404 | 88 | 190 | 1.0 | 5.0 | 0.00 | 0.00 | 0.00 | 10 | 1008.8 |
| 20260831202306 | 88 | 200 | 2.0 | 6.0 | 0.00 | 0.00 | 0.00 | 10 | 1008.9 |
| 20260831202205 | 88 | 205 | 2.0 | 6.0 | 0.00 | 0.00 | 0.00 | 10 | 1008.8 |
| 20260831202104 | 88 | 215 | 2.0 | 6.0 | 0.00 | 0.00 | 0.00 | 10 | 1008.8 |
| 20260831202005 | 88 | 228 | 2.0 | 6.0 | 0.00 | 0.00 | 0.00 | 10 | 1008.8 |
| 20260831201905 | 88 | 230 | 2.0 | 6.0 | 0.00 | 0.00 | 0.00 | 10 | 1008.8 |
| 20260831201805 | 88 | 212 | 2.0 | 6.0 | 0.00 | 0.00 | 0.00 | 10 | 1008.8 |
| 20260831201705 | 88 | 203 | 2.0 | 6.0 | 0.00 | 0.00 | 0.00 | 10 | 1008.8 |
| 20260831201605 | 88 | 158 | 3.0 | 6.0 | 0.00 | 0.00 | 0.00 | 10 | 1008.8 |
| 20260831201504 | 88 | 141 | 3.0 | 6.0 | 0.00 | 0.00 | 0.00 | 10 | 1008.9 |
| 20260831200905 | 88 | 102 | 1.0 | 6.0 | 0.00 | 0.00 | 0.00 | 10 | 1008.9 |
| 20260831200805 | 88 | 100 | 2.0 | 6.0 | 0.00 | 0.00 | 0.00 | 10 | 1009.0 |
| 20260831200704 | 88 | 93 | 3.0 | 6.0 | 0.00 | 0.00 | 0.00 | 10 | 1009.0 |
| 20260831200604 | 88 | 94 | 3.0 | 6.0 | 0.00 | 0.00 | 0.00 | 10 | 1009.0 |
| 20260831200505 | 88 | 91 | 2.0 | 5.0 | 0.00 | 0.00 | 0.00 | 10 | 1009.1 |
| 20260831200405 | 88 | 93 | 2.0 | 5.0 | 0.00 | 0.00 | 0.00 | 10 | 1009.1 |
| 20260831200304 | 88 | 117 | 2.0 | 6.0 | 0.00 | 0.00 | 0.00 | 10 | 1009.1 |
| 20260831200205 | 88 | 158 | 2.0 | 6.0 | 0.00 | 0.00 | 0.00 | 10 | 1009.1 |
| 20260831200105 | 87 | 169 | 2.0 | 6.0 | 0.00 | 0.00 | 0.00 | 10 | 1009.3 |
| 20260831200004 | 87 | 174 | 2.0 | 6.0 | 0.00 | 0.00 | 0.00 | 10 | 1009.0 |
| 20260831195904 | 87 | 183 | 2.0 | 6.0 | 0.00 | 0.00 | 0.00 | 10 | 1009.1 |
| 20260831195805 | 87 | 197 | 2.0 | 6.0 | 0.00 | 0.00 | 0.00 | 10 | 1009.1 |
| 20260831195705 | 87 | 194 | 2.0 | 6.0 | 0.00 | 0.00 | 0.00 | 10 | 1009.2 |
| 20260831195605 | 87 | 194 | 2.0 | 6.0 | 0.00 | 0.00 | 0.00 | 10 | 1009.2 |
| 20260831195505 | 87 | 203 | 2.0 | 6.0 | 0.00 | 0.00 | 0.00 | 10 | 1009.3 |
| 20260831195405 | 87 | 194 | 2.0 | 6.0 | 0.00 | 0.00 | 0.00 | 10 | 1009.2 |
| 20260831195306 | 87 | 203 | 3.0 | 6.0 | 0.00 | 0.00 | 0.00 | 10 | 1009.3 |
| 20260831195205 | 87 | 0 | 0.0 | 6.0 | 0.00 | 0.00 | 0.00 | 10 | 1009.3 |
| 20260831195104 | 87 | 245 | 1.0 | 6.0 | 0.00 | 0.00 | 0.00 | 10 | 1009.2 |
| 20260831195005 | 87 | 274 | 2.0 | 6.0 | 0.00 | 0.00 | 0.00 | 10 | 1009.3 |
| 20260831194905 | 87 | 309 | 2.0 | 7.0 | 0.00 | 0.00 | 0.00 | 10 | 1009.3 |
| 20260831194805 | 86 | 332 | 1.0 | 8.0 | 0.00 | 0.00 | 0.00 | 10 | 1009.2 |
| 20260831194704 | 86 | 339 | 3.0 | 8.0 | 0.00 | 0.00 | 0.00 | 10 | 1009.4 |
| 20260831194605 | 86 | 0 | 0.0 | 8.0 | 0.00 | 0.00 | 0.00 | 10 | 1009.3 |
| 20260831194505 | 86 | 0 | 0.0 | 8.0 | 0.00 | 0.00 | 0.00 | 10 | 1009.3 |
| 20260831194405 | 86 | 351 | 2.0 | 8.0 | 0.00 | 0.00 | 0.00 | 10 | 1009.5 |
| 20260831194304 | 86 | 354 | 2.0 | 8.0 | 0.00 | 0.00 | 0.00 | 10 | 1009.4 |
| 20260831194204 | 86 | 351 | 3.0 | 8.0 | 0.00 | 0.00 | 0.00 | 10 | 1009.4 |
| 20260831194105 | 86 | 339 | 2.0 | 8.0 | 0.00 | 0.00 | 0.00 | 10 | 1009.4 |
| 20260831194005 | 86 | 37 | 3.0 | 8.0 | 0.00 | 0.00 | 0.00 | 10 | 1009.5 |
| 20260831193505 | 86 | 0 | 0.0 | 9.0 | 0.00 | 0.00 | 0.00 | 10 | 1009.5 |
| 20260831193404 | 86 | 81 | 2.0 | 9.0 | 0.00 | 0.00 | 0.00 | 10 | 1009.5 |
| 20260831193305 | 86 | 76 | 2.0 | 9.0 | 0.00 | 0.00 | 0.00 | 10 | 1009.6 |
| 20260831193204 | 86 | 79 | 2.0 | 9.0 | 0.00 | 0.00 | 0.00 | 10 | 1009.6 |
| 20260831193104 | 86 | 84 | 5.0 | 9.0 | 0.00 | 0.00 | 0.00 | 10 | 1009.7 |
| 20260831193005 | 86 | 85 | 5.0 | 9.0 | 0.00 | 0.00 | 0.00 | 10 | 1009.6 |
| 20260831192905 | 86 | 85 | 2.0 | 9.0 | 0.00 | 0.00 | 0.00 | 10 | 1009.6 |
| 20260831192804 | 86 | 82 | 4.0 | 11.0 | 0.00 | 0.00 | 0.00 | 10 | 1009.7 |
| 20260831192705 | 86 | 83 | 3.0 | 11.0 | 0.00 | 0.00 | 0.00 | 10 | 1009.7 |
| 20260831192605 | 86 | 85 | 7.0 | 11.0 | 0.00 | 0.00 | 0.00 | 10 | 1009.7 |
| 20260831192505 | 86 | 89 | 4.0 | 11.0 | 0.00 | 0.00 | 0.00 | 10 | 1009.6 |
| 20260831192405 | 86 | 77 | 5.0 | 11.0 | 0.00 | 0.00 | 0.00 | 10 | 1009.7 |
| 20260831192305 | 86 | 78 | 5.0 | 11.0 | 0.00 | 0.00 | 0.00 | 10 | 1009.8 |
| 20260831192205 | 86 | 79 | 2.0 | 11.0 | 0.00 | 0.00 | 0.00 | 10 | 1009.8 |
| 20260831192105 | 86 | 71 | 4.0 | 11.0 | 0.00 | 0.00 | 0.00 | 10 | 1009.8 |
| 20260831192005 | 85 | 62 | 4.0 | 11.0 | 0.00 | 0.00 | 0.00 | 10 | 1009.8 |
| 20260831191905 | 86 | 57 | 7.0 | 11.0 | 0.00 | 0.00 | 0.00 | 10 | 1009.7 |
| 20260831191205 | 85 | 7 | 3.0 | 9.0 | 0.00 | 0.00 | 0.00 | 10 | 1010.0 |
| 20260831191105 | 85 | 337 | 4.0 | 9.0 | 0.00 | 0.00 | 0.00 | 10 | 1009.9 |
| 20260831190805 | 85 | 0 | 0.0 | 6.0 | 0.00 | 0.00 | 0.00 | 10 | 1010.0 |
| 20260831190705 | 85 | 273 | 1.0 | 6.0 | 0.00 | 0.00 | 0.00 | 10 | 1010.0 |
| 20260831190504 | 85 | 269 | 3.0 | 6.0 | 0.00 | 0.00 | 0.00 | 10 | 1010.0 |
| 20260831190405 | 85 | 270 | 2.0 | 6.0 | 0.00 | 0.00 | 0.00 | 10 | 1010.1 |
| 20260831190305 | 85 | 278 | 3.0 | 6.0 | 0.00 | 0.00 | 0.00 | 10 | 1010.1 |
| 20260831190204 | 85 | 303 | 3.0 | 6.0 | 0.00 | 0.00 | 0.00 | 10 | 1010.2 |
| 20260831190104 | 85 | 108 | 3.0 | 6.0 | 0.00 | 0.00 | 0.00 | 10 | 1010.2 |
| 20260831190005 | 85 | 129 | 3.0 | 6.0 | 0.00 | 0.00 | 0.00 | 10 | 1010.3 |
| 20260831185904 | 85 | 0 | 0.0 | 6.0 | 0.00 | 0.00 | 0.00 | 10 | 1010.4 |
| 20260831185805 | 85 | 103 | 1.0 | 6.0 | 0.00 | 0.00 | 0.00 | 10 | 1010.2 |
| 20260831185705 | 85 | 90 | 1.0 | 8.0 | 0.00 | 0.00 | 0.00 | 10 | 1010.2 |
| 20260831185604 | 85 | 88 | 2.0 | 8.0 | 0.00 | 0.00 | 0.00 | 10 | 1010.3 |
| 20260831185505 | 84 | 0 | 0.0 | 8.0 | 0.00 | 0.00 | 0.00 | 10 | 1010.4 |
| 20260831185405 | 84 | 84 | 2.0 | 8.0 | 0.00 | 0.00 | 0.00 | 10 | 1010.4 |
| 20260831185306 | 84 | 86 | 4.0 | 8.0 | 0.00 | 0.00 | 0.00 | 10 | 1010.4 |
| 20260831185205 | 84 | 85 | 4.0 | 8.0 | 0.00 | 0.00 | 0.00 | 10 | 1010.4 |
| 20260831185105 | 84 | 75 | 1.0 | 8.0 | 0.00 | 0.00 | 0.00 | 10 | 1010.4 |
| 20260831185004 | 84 | 64 | 2.0 | 8.0 | 0.00 | 0.00 | 0.00 | 10 | 1010.4 |
| 20260831184904 | 84 | 55 | 2.0 | 8.0 | 0.00 | 0.00 | 0.00 | 10 | 1010.4 |
| 20260831184805 | 84 | 55 | 3.0 | 8.0 | 0.00 | 0.00 | 0.00 | 10 | 1010.4 |
| 20260831184705 | 84 | 65 | 4.0 | 8.0 | 0.00 | 0.00 | 0.00 | 10 | 1010.4 |
| 20260831184604 | 84 | 52 | 4.0 | 8.0 | 0.00 | 0.00 | 0.00 | 10 | 1010.4 |
| 20260831184504 | 84 | 305 | 4.0 | 8.0 | 0.00 | 0.00 | 0.00 | 10 | 1010.4 |
| 20260831184405 | 84 | 282 | 2.0 | 8.0 | 0.00 | 0.00 | 0.00 | 10 | 1010.4 |
| 20260831184304 | 83 | 272 | 2.0 | 8.0 | 0.00 | 0.00 | 0.00 | 10 | 1010.4 |
| 20260831184205 | 83 | 270 | 2.0 | 8.0 | 0.00 | 0.00 | 0.00 | 10 | 1010.4 |
| 20260831184105 | 83 | 282 | 2.0 | 8.0 | 0.00 | 0.00 | 0.00 | 10 | 1010.4 |
| 20260831184005 | 83 | 289 | 2.0 | 8.0 | 0.00 | 0.00 | 0.00 | 10 | 1010.5 |
| 20260831183905 | 83 | 0 | 0.0 | 8.0 | 0.00 | 0.00 | 0.00 | 10 | 1010.4 |
| 20260831183804 | 83 | 310 | 2.0 | 8.0 | 0.00 | 0.00 | 0.00 | 10 | 1010.4 |
| 20260831183705 | 83 | 318 | 3.0 | 8.0 | 0.00 | 0.00 | 0.00 | 10 | 1010.5 |
| 20260831183605 | 83 | 325 | 3.0 | 9.0 | 0.00 | 0.00 | 0.00 | 10 | 1010.6 |
| 20260831183504 | 83 | 0 | 0.0 | 9.0 | 0.00 | 0.00 | 0.00 | 10 | 1010.6 |
| 20260831183405 | 83 | 327 | 2.0 | 9.0 | 0.00 | 0.00 | 0.00 | 10 | 1010.6 |
| 20260831183305 | 83 | 324 | 2.0 | 9.0 | 0.00 | 0.00 | 0.00 | 10 | 1010.6 |
| 20260831183204 | 83 | 316 | 2.0 | 9.0 | 0.00 | 0.00 | 0.00 | 10 | 1010.6 |
| 20260831183105 | 82 | 308 | 4.0 | 9.0 | 0.00 | 0.00 | 0.00 | 10 | 1010.7 |
| 20260831183005 | 82 | 299 | 4.0 | 9.0 | 0.00 | 0.00 | 0.00 | 10 | 1010.6 |
| 20260831182904 | 82 | 291 | 2.0 | 9.0 | 0.00 | 0.00 | 0.00 | 10 | 1010.6 |
| 20260831182705 | 82 | 288 | 4.0 | 9.0 | 0.00 | 0.00 | 0.00 | 10 | 1010.7 |
| 20260831182604 | 82 | 283 | 4.0 | 9.0 | 0.00 | 0.00 | 0.00 | 10 | 1010.8 |
| 20260831182505 | 82 | 279 | 2.0 | 8.0 | 0.00 | 0.00 | 0.00 | 10 | 1010.7 |
| 20260831182405 | 82 | 286 | 3.0 | 8.0 | 0.00 | 0.00 | 0.00 | 10 | 1010.9 |
| 20260831182306 | 82 | 282 | 3.0 | 8.0 | 0.00 | 0.00 | 0.00 | 10 | 1010.5 |
| 20260831182204 | 82 | 0 | 0.0 | 8.0 | 0.00 | 0.00 | 0.00 | 10 | 1010.7 |
| 20260831182105 | 82 | 296 | 1.0 | 8.0 | 0.00 | 0.00 | 0.00 | 10 | 1010.7 |
| 20260831182005 | 82 | 303 | 2.0 | 8.0 | 0.00 | 0.00 | 0.00 | 10 | 1010.7 |
| 20260831181904 | 82 | 314 | 2.0 | 8.0 | 0.00 | 0.00 | 0.00 | 10 | 1010.8 |
| 20260831181805 | 82 | 314 | 1.0 | 8.0 | 0.00 | 0.00 | 0.00 | 10 | 1010.7 |
| 20260831162904 | 73 | 5 | 2.0 | 4.0 | 0.00 | 0.00 | 0.00 | 23 | 1011.4 |
| 20260831162805 | 73 | 0 | 0.0 | 4.0 | 0.00 | 0.00 | 0.00 | 24 | 1011.2 |
| 20260831161004 | 71 | 70 | 1.0 | 4.0 | 0.00 | 0.00 | 0.00 | 27 | 1011.3 |
| 20260831160904 | 71 | 91 | 2.0 | 4.0 | 0.00 | 0.00 | 0.00 | 27 | 1011.4 |
| 20260831160804 | 71 | 0 | 0.0 | 4.0 | 0.00 | 0.00 | 0.00 | 28 | 1011.4 |
| 20260831160704 | 70 | 0 | 0.0 | 4.0 | 0.00 | 0.00 | 0.00 | 28 | 1011.4 |
| 20260831160607 | 70 | 0 | 0.0 | 4.0 | 0.00 | 0.00 | 0.00 | 28 | 1011.3 |
| 20260831160504 | 70 | 110 | 1.0 | 4.0 | 0.00 | 0.00 | 0.00 | 28 | 1011.5 |
| 20260831160404 | 70 | 119 | 2.0 | 4.0 | 0.00 | 0.00 | 0.00 | 29 | 1011.4 |
| 20260831160304 | 70 | 144 | 2.0 | 4.0 | 0.00 | 0.00 | 0.00 | 29 | 1011.5 |
| 20260831160204 | 70 | 170 | 2.0 | 3.0 | 0.00 | 0.00 | 0.00 | 30 | 1011.4 |
| 20260831160104 | 69 | 0 | 0.0 | 2.0 | 0.00 | 0.00 | 0.00 | 31 | 1011.4 |
| 20260831155504 | 69 | 0 | 0.0 | 2.0 | 0.00 | 0.00 | 0.00 | 30 | 1011.5 |
| 20260831155404 | 69 | 0 | 0.0 | 2.0 | 0.00 | 0.00 | 0.00 | 30 | 1011.6 |
| 20260831155306 | 69 | 0 | 0.0 | 2.0 | 0.00 | 0.00 | 0.00 | 30 | 1011.5 |
| 20260831155204 | 69 | 0 | 0.0 | 2.0 | 0.00 | 0.00 | 0.00 | 30 | 1011.5 |
| 20260831155104 | 69 | 150 | 1.0 | 2.0 | 0.00 | 0.00 | 0.00 | 30 | 1011.6 |
| 20260831155005 | 69 | 0 | 0.0 | 2.0 | 0.00 | 0.00 | 0.00 | 31 | 1011.5 |
| 20260831154904 | 69 | 0 | 0.0 | 2.0 | 0.00 | 0.00 | 0.00 | 31 | 1011.5 |
| 20260831154804 | 68 | 0 | 0.0 | 2.0 | 0.00 | 0.00 | 0.00 | 31 | 1011.6 |
| 20260831154704 | 68 | 0 | 0.0 | 2.0 | 0.00 | 0.00 | 0.00 | 30 | 1011.5 |
| 20260831154604 | 68 | 0 | 0.0 | 2.0 | 0.00 | 0.00 | 0.00 | 31 | 1011.6 |
| 20260831154504 | 68 | 0 | 0.0 | 2.0 | 0.00 | 0.00 | 0.00 | 31 | 1011.6 |
| 20260831154405 | 68 | 0 | 0.0 | 3.0 | 0.00 | 0.00 | 0.00 | 31 | 1011.5 |
| 20260831154304 | 68 | 0 | 0.0 | 4.0 | 0.00 | 0.00 | 0.00 | 31 | 1011.5 |
| 20260831154204 | 68 | 0 | 0.0 | 4.0 | 0.00 | 0.00 | 0.00 | 31 | 1011.5 |
| 20260831154104 | 68 | 0 | 0.0 | 4.0 | 0.00 | 0.00 | 0.00 | 31 | 1011.5 |
| 20260831154004 | 68 | 0 | 0.0 | 4.0 | 0.00 | 0.00 | 0.00 | 30 | 1011.5 |
| 20260831153904 | 68 | 124 | 1.0 | 4.0 | 0.00 | 0.00 | 0.00 | 30 | 1011.5 |
| 20260831153804 | 68 | 119 | 1.0 | 4.0 | 0.00 | 0.00 | 0.00 | 30 | 1011.5 |
| 20260831153704 | 68 | 0 | 0.0 | 4.0 | 0.00 | 0.00 | 0.00 | 30 | 1011.5 |
| 20260831153604 | 68 | 0 | 0.0 | 4.0 | 0.00 | 0.00 | 0.00 | 31 | 1011.4 |
| 20260831153504 | 68 | 108 | 2.0 | 4.0 | 0.00 | 0.00 | 0.00 | 30 | 1011.4 |
| 20260831153404 | 68 | 111 | 1.0 | 4.0 | 0.00 | 0.00 | 0.00 | 31 | 1011.5 |
| 20260831153304 | 68 | 117 | 2.0 | 4.0 | 0.00 | 0.00 | 0.00 | 30 | 1011.5 |
| 20260831153204 | 68 | 119 | 2.0 | 4.0 | 0.00 | 0.00 | 0.00 | 31 | 1011.5 |
| 20260831153104 | 68 | 126 | 1.0 | 2.0 | 0.00 | 0.00 | 0.00 | 32 | 1011.5 |
| 20260831153004 | 68 | 126 | 1.0 | 2.0 | 0.00 | 0.00 | 0.00 | 32 | 1011.4 |
| 20260831152904 | 67 | 0 | 0.0 | 2.0 | 0.00 | 0.00 | 0.00 | 32 | 1011.5 |
| 20260831152804 | 67 | 127 | 1.0 | 2.0 | 0.00 | 0.00 | 0.00 | 33 | 1011.4 |
| 20260831152704 | 67 | 127 | 1.0 | 2.0 | 0.00 | 0.00 | 0.00 | 33 | 1011.5 |
| 20260831152604 | 67 | 0 | 0.0 | 3.0 | 0.00 | 0.00 | 0.00 | 33 | 1011.4 |
| 20260831152504 | 67 | 0 | 0.0 | 3.0 | 0.00 | 0.00 | 0.00 | 33 | 1011.5 |
| 20260831152404 | 66 | 0 | 0.0 | 3.0 | 0.00 | 0.00 | 0.00 | 33 | 1011.6 |
| 20260831152306 | 66 | 155 | 1.0 | 3.0 | 0.00 | 0.00 | 0.00 | 34 | 1011.6 |
| 20260831152205 | 66 | 159 | 1.0 | 3.0 | 0.00 | 0.00 | 0.00 | 34 | 1011.5 |
| 20260831152104 | 66 | 159 | 1.0 | 3.0 | 0.00 | 0.00 | 0.00 | 35 | 1011.6 |
| 20260831152004 | 66 | 0 | 0.0 | 3.0 | 0.00 | 0.00 | 0.00 | 35 | 1011.5 |
| 20260831151905 | 66 | 0 | 0.0 | 3.0 | 0.00 | 0.00 | 0.00 | 35 | 1011.6 |
| 20260831151804 | 66 | 0 | 0.0 | 3.0 | 0.00 | 0.00 | 0.00 | 35 | 1011.6 |
| 20260831151704 | 66 | 0 | 0.0 | 3.0 | 0.00 | 0.00 | 0.00 | 35 | 1011.6 |
| 20260831151605 | 66 | 150 | 2.0 | 3.0 | 0.00 | 0.00 | 0.00 | 35 | 1011.5 |
| 20260831151504 | 66 | 142 | 2.0 | 3.0 | 0.00 | 0.00 | 0.00 | 35 | 1011.5 |
| 20260831151404 | 66 | 134 | 2.0 | 3.0 | 0.00 | 0.00 | 0.00 | 36 | 1011.5 |
| 20260831151304 | 65 | 0 | 0.0 | 3.0 | 0.00 | 0.00 | 0.00 | 36 | 1011.5 |
| 20260831151204 | 65 | 0 | 0.0 | 3.0 | 0.00 | 0.00 | 0.00 | 37 | 1011.6 |
| 20260831151105 | 65 | 0 | 0.0 | 3.0 | 0.00 | 0.00 | 0.00 | 37 | 1011.6 |
| 20260831150904 | 65 | 118 | 2.0 | 3.0 | 0.00 | 0.00 | 0.00 | 38 | 1011.6 |
| 20260831150804 | 65 | 124 | 2.0 | 3.0 | 0.00 | 0.00 | 0.00 | 39 | 1011.5 |
| 20260831150704 | 65 | 0 | 0.0 | 3.0 | 0.00 | 0.00 | 0.00 | 39 | 1011.6 |
| 20260831150604 | 65 | 120 | 1.0 | 3.0 | 0.00 | 0.00 | 0.00 | 39 | 1011.4 |
| 20260831150504 | 64 | 130 | 1.0 | 3.0 | 0.00 | 0.00 | 0.00 | 39 | 1011.5 |
| 20260831150404 | 64 | 0 | 0.0 | 2.0 | 0.00 | 0.00 | 0.00 | 40 | 1011.5 |
| 20260831150304 | 64 | 0 | 0.0 | 2.0 | 0.00 | 0.00 | 0.00 | 40 | 1011.5 |
| 20260831150204 | 63 | 0 | 0.0 | 2.0 | 0.00 | 0.00 | 0.00 | 40 | 1011.5 |
| 20260831150104 | 63 | 0 | 0.0 | 2.0 | 0.00 | 0.00 | 0.00 | 41 | 1011.5 |
| 20260831150005 | 63 | 0 | 0.0 | 2.0 | 0.00 | 0.00 | 0.00 | 41 | 1011.6 |
| 20260831145904 | 62 | 0 | 0.0 | 2.0 | 0.00 | 0.00 | 0.00 | 41 | 1011.5 |
| 20260831145804 | 62 | 0 | 0.0 | 2.0 | 0.00 | 0.00 | 0.00 | 41 | 1011.6 |
| 20260831145704 | 62 | 0 | 0.0 | 2.0 | 0.00 | 0.00 | 0.00 | 41 | 1011.6 |
| 20260831145604 | 62 | 0 | 0.0 | 2.0 | 0.00 | 0.00 | 0.00 | 41 | 1011.5 |
| 20260831145504 | 61 | 0 | 0.0 | 2.0 | 0.00 | 0.00 | 0.00 | 41 | 1011.5 |
| 20260831145404 | 61 | 0 | 0.0 | 2.0 | 0.00 | 0.00 | 0.00 | 42 | 1011.5 |
| 20260831145306 | 61 | 105 | 1.0 | 2.0 | 0.00 | 0.00 | 0.00 | 42 | 1011.6 |
| 20260831145204 | 61 | 123 | 1.0 | 2.0 | 0.00 | 0.00 | 0.00 | 43 | 1011.6 |
| 20260831145104 | 60 | 0 | 0.0 | 1.0 | 0.00 | 0.00 | 0.00 | 43 | 1011.6 |
| 20260831145004 | 60 | 0 | 0.0 | 1.0 | 0.00 | 0.00 | 0.00 | 43 | 1011.6 |
| 20260831144904 | 60 | 0 | 0.0 | 1.0 | 0.00 | 0.00 | 0.00 | 43 | 1011.6 |
| 20260831144804 | 60 | 0 | 0.0 | 1.0 | 0.00 | 0.00 | 0.00 | 43 | 1011.5 |
| 20260831144704 | 59 | 0 | 0.0 | 1.0 | 0.00 | 0.00 | 0.00 | 43 | 1011.7 |
| 20260831144604 | 59 | 0 | 0.0 | 1.0 | 0.00 | 0.00 | 0.00 | 44 | 1011.5 |
| 20260831144504 | 59 | 0 | 0.0 | 1.0 | 0.00 | 0.00 | 0.00 | 44 | 1011.7 |
| 20260831144404 | 59 | 0 | 0.0 | 1.0 | 0.00 | 0.00 | 0.00 | 45 | 1011.5 |
| 20260831144304 | 58 | 0 | 0.0 | 1.0 | 0.00 | 0.00 | 0.00 | 45 | 1011.6 |
| 20260831144204 | 58 | 0 | 0.0 | 1.0 | 0.00 | 0.00 | 0.00 | 45 | 1011.6 |
| 20260831144104 | 58 | 0 | 0.0 | 1.0 | 0.00 | 0.00 | 0.00 | 46 | 1011.7 |
| 20260831144004 | 57 | 0 | 0.0 | 1.0 | 0.00 | 0.00 | 0.00 | 47 | 1011.6 |
| 20260831143904 | 57 | 0 | 0.0 | 1.0 | 0.00 | 0.00 | 0.00 | 47 | 1011.6 |
| 20260831143804 | 57 | 0 | 0.0 | 1.0 | 0.00 | 0.00 | 0.00 | 47 | 1011.6 |
| 20260831143705 | 57 | 0 | 0.0 | 1.0 | 0.00 | 0.00 | 0.00 | 48 | 1011.6 |
| 20260831143604 | 56 | 0 | 0.0 | 1.0 | 0.00 | 0.00 | 0.00 | 48 | 1011.6 |
| 20260831143504 | 56 | 0 | 0.0 | 1.0 | 0.00 | 0.00 | 0.00 | 48 | 1011.6 |
| 20260831143404 | 56 | 0 | 0.0 | 1.0 | 0.00 | 0.00 | 0.00 | 49 | 1011.6 |
| 20260831143304 | 55 | 0 | 0.0 | 1.0 | 0.00 | 0.00 | 0.00 | 49 | 1011.4 |
| 20260831143204 | 55 | 0 | 0.0 | 0.0 | 0.00 | 0.00 | 0.00 | 49 | 1011.6 |
| 20260831142604 | 54 | 0 | 0.0 | 2.0 | 0.00 | 0.00 | 0.00 | 50 | 1011.6 |
| 20260831142505 | 54 | 0 | 0.0 | 2.0 | 0.00 | 0.00 | 0.00 | 50 | 1011.7 |
| 20260831142404 | 53 | 0 | 0.0 | 2.0 | 0.00 | 0.00 | 0.00 | 51 | 1011.5 |
| 20260831142306 | 53 | 0 | 0.0 | 2.0 | 0.00 | 0.00 | 0.00 | 51 | 1011.5 |
| 20260831142205 | 53 | 0 | 0.0 | 2.0 | 0.00 | 0.00 | 0.00 | 51 | 1011.5 |
| 20260831142104 | 53 | 0 | 0.0 | 2.0 | 0.00 | 0.00 | 0.00 | 52 | 1011.5 |
| 20260831142004 | 53 | 0 | 0.0 | 2.0 | 0.00 | 0.00 | 0.00 | 52 | 1011.5 |
| 20260831141904 | 53 | 0 | 0.0 | 2.0 | 0.00 | 0.00 | 0.00 | 52 | 1011.5 |
| 20260831141804 | 53 | 0 | 0.0 | 2.0 | 0.00 | 0.00 | 0.00 | 52 | 1011.6 |
| 20260831141704 | 52 | 0 | 0.0 | 2.0 | 0.00 | 0.00 | 0.00 | 53 | 1011.4 |
| 20260831141604 | 52 | 0 | 0.0 | 2.0 | 0.00 | 0.00 | 0.00 | 54 | 1011.4 |
| 20260831141504 | 52 | 0 | 0.0 | 2.0 | 0.00 | 0.00 | 0.00 | 54 | 1011.4 |
| 20260831141404 | 52 | 0 | 0.0 | 2.0 | 0.00 | 0.00 | 0.00 | 54 | 1011.5 |
| 20260831141304 | 52 | 0 | 0.0 | 2.0 | 0.00 | 0.00 | 0.00 | 55 | 1011.5 |
| 20260831141204 | 51 | 0 | 0.0 | 2.0 | 0.00 | 0.00 | 0.00 | 55 | 1011.5 |
| 20260831141104 | 51 | 0 | 0.0 | 2.0 | 0.00 | 0.00 | 0.00 | 54 | 1011.5 |
| 20260831141004 | 51 | 0 | 0.0 | 2.0 | 0.00 | 0.00 | 0.00 | 54 | 1011.5 |
| 20260831140904 | 50 | 0 | 0.0 | 2.0 | 0.00 | 0.00 | 0.00 | 55 | 1011.4 |
| 20260831140804 | 50 | 0 | 0.0 | 2.0 | 0.00 | 0.00 | 0.00 | 55 | 1011.5 |
| 20260831140704 | 50 | 0 | 0.0 | 2.0 | 0.00 | 0.00 | 0.00 | 55 | 1011.5 |
| 20260831140603 | 50 | 0 | 0.0 | 2.0 | 0.00 | 0.00 | 0.00 | 55 | 1011.5 |
| 20260831140504 | 49 | 0 | 0.0 | 2.0 | 0.00 | 0.00 | 0.00 | 56 | 1011.5 |
| 20260831140404 | 49 | 0 | 0.0 | 2.0 | 0.00 | 0.00 | 0.00 | 56 | 1011.4 |
| 20260831140305 | 49 | 0 | 0.0 | 3.0 | 0.00 | 0.00 | 0.00 | 56 | 1011.4 |
| 20260831140204 | 49 | 0 | 0.0 | 3.0 | 0.00 | 0.00 | 0.00 | 56 | 1011.5 |
| 20260831140104 | 48 | 115 | 1.0 | 3.0 | 0.00 | 0.00 | 0.00 | 56 | 1011.5 |
| 20260831140005 | 48 | 110 | 1.0 | 3.0 | 0.00 | 0.00 | 0.00 | 56 | 1011.3 |
| 20260831135904 | 48 | 108 | 1.0 | 3.0 | 0.00 | 0.00 | 0.00 | 56 | 1011.4 |
| 20260831135804 | 48 | 104 | 1.0 | 3.0 | 0.00 | 0.00 | 0.00 | 57 | 1011.4 |
| 20260831135604 | 47 | 96 | 1.0 | 3.0 | 0.00 | 0.00 | 0.00 | 57 | 1011.4 |
| 20260831135504 | 47 | 94 | 1.0 | 3.0 | 0.00 | 0.00 | 0.00 | 56 | 1011.4 |
| 20260831135404 | 47 | 90 | 2.0 | 3.0 | 0.00 | 0.00 | 0.00 | 57 | 1011.4 |
| 20260831135306 | 47 | 85 | 2.0 | 3.0 | 0.00 | 0.00 | 0.00 | 57 | 1011.4 |
| 20260831135204 | 47 | 84 | 2.0 | 3.0 | 0.00 | 0.00 | 0.00 | 57 | 1011.3 |
| 20260831135104 | 47 | 83 | 2.0 | 3.0 | 0.00 | 0.00 | 0.00 | 58 | 1011.4 |
| 20260831135005 | 47 | 81 | 1.0 | 3.0 | 0.00 | 0.00 | 0.00 | 58 | 1011.4 |
| 20260831134904 | 47 | 0 | 0.0 | 3.0 | 0.00 | 0.00 | 0.00 | 58 | 1011.4 |
| 20260831134804 | 47 | 79 | 1.0 | 3.0 | 0.00 | 0.00 | 0.00 | 58 | 1011.4 |
| 20260831134705 | 47 | 76 | 1.0 | 3.0 | 0.00 | 0.00 | 0.00 | 59 | 1011.3 |
| 20260831134604 | 46 | 72 | 1.0 | 3.0 | 0.00 | 0.00 | 0.00 | 59 | 1011.3 |
| 20260831134504 | 46 | 66 | 1.0 | 3.0 | 0.00 | 0.00 | 0.00 | 59 | 1011.3 |
| 20260831134405 | 46 | 45 | 2.0 | 3.0 | 0.00 | 0.00 | 0.00 | 61 | 1011.2 |
| 20260831134304 | 46 | 0 | 0.0 | 0.0 | 0.00 | 0.00 | 0.00 | 61 | 1011.3 |
| 20260831134204 | 46 | 0 | 0.0 | 0.0 | 0.00 | 0.00 | 0.00 | 62 | 1011.2 |
| 20260831134105 | 46 | 0 | 0.0 | 0.0 | 0.00 | 0.00 | 0.00 | 62 | 1011.3 |
| 20260831134004 | 46 | 0 | 0.0 | 0.0 | 0.00 | 0.00 | 0.00 | 61 | 1011.3 |
| 20260831133904 | 46 | 0 | 0.0 | 0.0 | 0.00 | 0.00 | 0.00 | 61 | 1011.2 |
| 20260831133804 | 46 | 0 | 0.0 | 0.0 | 0.00 | 0.00 | 0.00 | 61 | 1011.2 |
| 20260831133704 | 46 | 0 | 0.0 | 0.0 | 0.00 | 0.00 | 0.00 | 60 | 1011.3 |
| 20260831133604 | 46 | 0 | 0.0 | 1.0 | 0.00 | 0.00 | 0.00 | 60 | 1011.4 |
| 20260831133504 | 46 | 0 | 0.0 | 1.0 | 0.00 | 0.00 | 0.00 | 59 | 1011.3 |
| 20260831133004 | 46 | 0 | 0.0 | 2.0 | 0.00 | 0.00 | 0.00 | 58 | 1011.2 |
| 20260831132904 | 46 | 0 | 0.0 | 2.0 | 0.00 | 0.00 | 0.00 | 58 | 1011.2 |
| 20260831132804 | 46 | 0 | 0.0 | 2.0 | 0.00 | 0.00 | 0.00 | 58 | 1011.3 |
| 20260831132704 | 46 | 0 | 0.0 | 2.0 | 0.00 | 0.00 | 0.00 | 58 | 1011.4 |
| 20260831132604 | 46 | 0 | 0.0 | 2.0 | 0.00 | 0.00 | 0.00 | 58 | 1011.3 |
| 20260831132504 | 46 | 0 | 0.0 | 2.0 | 0.00 | 0.00 | 0.00 | 58 | 1011.3 |
| 20260831132104 | 46 | 0 | 0.0 | 2.0 | 0.00 | 0.00 | 0.00 | 58 | 1011.4 |
| 20260831132004 | 46 | 0 | 0.0 | 2.0 | 0.00 | 0.00 | 0.00 | 58 | 1011.3 |
| 20260831131904 | 46 | 0 | 0.0 | 2.0 | 0.00 | 0.00 | 0.00 | 58 | 1011.3 |
| 20260831131804 | 46 | 0 | 0.0 | 2.0 | 0.00 | 0.00 | 0.00 | 58 | 1011.2 |
| 20260831131704 | 46 | 0 | 0.0 | 2.0 | 0.00 | 0.00 | 0.00 | 58 | 1011.4 |
| 20260831131604 | 46 | 0 | 0.0 | 2.0 | 0.00 | 0.00 | 0.00 | 58 | 1011.3 |
| 20260831131504 | 46 | 0 | 0.0 | 2.0 | 0.00 | 0.00 | 0.00 | 58 | 1011.3 |
| 20260831131404 | 46 | 0 | 0.0 | 2.0 | 0.00 | 0.00 | 0.00 | 58 | 1011.3 |
| 20260831131305 | 46 | 120 | 1.0 | 2.0 | 0.00 | 0.00 | 0.00 | 58 | 1011.3 |
| 20260831131204 | 46 | 0 | 0.0 | 2.0 | 0.00 | 0.00 | 0.00 | 58 | 1011.3 |
| 20260831131104 | 46 | 0 | 0.0 | 2.0 | 0.00 | 0.00 | 0.00 | 59 | 1011.3 |
| 20260831131005 | 46 | 0 | 0.0 | 2.0 | 0.00 | 0.00 | 0.00 | 59 | 1011.2 |
| 20260831130904 | 46 | 0 | 0.0 | 2.0 | 0.00 | 0.00 | 0.00 | 59 | 1011.2 |
| 20260831130804 | 46 | 0 | 0.0 | 2.0 | 0.00 | 0.00 | 0.00 | 60 | 1011.3 |
| 20260831130705 | 46 | 0 | 0.0 | 2.0 | 0.00 | 0.00 | 0.00 | 60 | 1011.3 |
| 20260831130604 | 46 | 118 | 1.0 | 2.0 | 0.00 | 0.00 | 0.00 | 60 | 1011.3 |
| 20260831130504 | 46 | 124 | 2.0 | 2.0 | 0.00 | 0.00 | 0.00 | 60 | 1011.3 |
| 20260831130404 | 46 | 0 | 0.0 | 2.0 | 0.00 | 0.00 | 0.00 | 61 | 1011.3 |
| 20260831130304 | 46 | 0 | 0.0 | 2.0 | 0.00 | 0.00 | 0.00 | 61 | 1011.3 |
| 20260831130204 | 46 | 0 | 0.0 | 2.0 | 0.00 | 0.00 | 0.00 | 61 | 1011.3 |
| 20260831130004 | 46 | 0 | 0.0 | 2.0 | 0.00 | 0.00 | 0.00 | 60 | 1011.2 |
| 20260831125904 | 46 | 0 | 0.0 | 2.0 | 0.00 | 0.00 | 0.00 | 60 | 1011.2 |
| 20260831125804 | 46 | 0 | 0.0 | 2.0 | 0.00 | 0.00 | 0.00 | 60 | 1011.3 |
| 20260831125704 | 46 | 0 | 0.0 | 2.0 | 0.00 | 0.00 | 0.00 | 59 | 1011.3 |
| 20260831125604 | 46 | 0 | 0.0 | 2.0 | 0.00 | 0.00 | 0.00 | 59 | 1011.2 |
| 20260831125504 | 46 | 116 | 1.0 | 2.0 | 0.00 | 0.00 | 0.00 | 59 | 1011.2 |
| 20260831125404 | 46 | 127 | 1.0 | 2.0 | 0.00 | 0.00 | 0.00 | 58 | 1011.2 |
| 20260831125306 | 46 | 0 | 0.0 | 2.0 | 0.00 | 0.00 | 0.00 | 58 | 1011.3 |
| 20260831125204 | 46 | 0 | 0.0 | 2.0 | 0.00 | 0.00 | 0.00 | 57 | 1011.2 |
| 20260831125104 | 46 | 0 | 0.0 | 0.0 | 0.00 | 0.00 | 0.00 | 57 | 1011.1 |
| 20260831125004 | 46 | 0 | 0.0 | 0.0 | 0.00 | 0.00 | 0.00 | 57 | 1011.1 |
| 20260831124904 | 46 | 0 | 0.0 | 0.0 | 0.00 | 0.00 | 0.00 | 57 | 1011.1 |
| 20260831124804 | 47 | 0 | 0.0 | 0.0 | 0.00 | 0.00 | 0.00 | 57 | 1011.2 |
| 20260831124103 | 47 | 0 | 0.0 | 0.0 | 0.00 | 0.00 | 0.00 | 56 | 1011.2 |
| 20260831124004 | 47 | 0 | 0.0 | 0.0 | 0.00 | 0.00 | 0.00 | 56 | 1011.2 |
| 20260831123904 | 47 | 0 | 0.0 | 0.0 | 0.00 | 0.00 | 0.00 | 56 | 1011.2 |
| 20260831123803 | 47 | 0 | 0.0 | 0.0 | 0.00 | 0.00 | 0.00 | 56 | 1011.2 |
| 20260831123704 | 47 | 0 | 0.0 | 1.0 | 0.00 | 0.00 | 0.00 | 56 | 1011.3 |
| 20260831123604 | 48 | 0 | 0.0 | 1.0 | 0.00 | 0.00 | 0.00 | 56 | 1011.2 |
| 20260831123504 | 48 | 0 | 0.0 | 1.0 | 0.00 | 0.00 | 0.00 | 56 | 1011.3 |
| 20260831123404 | 48 | 0 | 0.0 | 1.0 | 0.00 | 0.00 | 0.00 | 57 | 1011.3 |
| 20260831123304 | 48 | 0 | 0.0 | 1.0 | 0.00 | 0.00 | 0.00 | 57 | 1011.3 |
| 20260831123204 | 48 | 0 | 0.0 | 1.0 | 0.00 | 0.00 | 0.00 | 57 | 1011.3 |
| 20260831123104 | 48 | 0 | 0.0 | 1.0 | 0.00 | 0.00 | 0.00 | 57 | 1011.3 |
| 20260831122403 | 48 | 0 | 0.0 | 2.0 | 0.00 | 0.00 | 0.00 | 58 | 1011.2 |
| 20260831122306 | 48 | 0 | 0.0 | 2.0 | 0.00 | 0.00 | 0.00 | 58 | 1011.2 |
| 20260831122204 | 47 | 0 | 0.0 | 2.0 | 0.00 | 0.00 | 0.00 | 58 | 1011.1 |
| 20260831122104 | 47 | 0 | 0.0 | 2.0 | 0.00 | 0.00 | 0.00 | 58 | 1011.1 |
| 20260831122004 | 47 | 0 | 0.0 | 2.0 | 0.00 | 0.00 | 0.00 | 58 | 1011.1 |
| 20260831121904 | 47 | 0 | 0.0 | 2.0 | 0.00 | 0.00 | 0.00 | 59 | 1011.2 |
| 20260831121804 | 47 | 0 | 0.0 | 2.0 | 0.00 | 0.00 | 0.00 | 58 | 1011.1 |
| 20260831121704 | 47 | 0 | 0.0 | 2.0 | 0.00 | 0.00 | 0.00 | 59 | 1011.2 |
| 20260831121604 | 47 | 0 | 0.0 | 2.0 | 0.00 | 0.00 | 0.00 | 59 | 1011.2 |
| 20260831121504 | 47 | 0 | 0.0 | 2.0 | 0.00 | 0.00 | 0.00 | 59 | 1011.2 |
| 20260831121405 | 47 | 0 | 0.0 | 2.0 | 0.00 | 0.00 | 0.00 | 59 | 1011.3 |
| 20260831121304 | 47 | 135 | 1.0 | 2.0 | 0.00 | 0.00 | 0.00 | 59 | 1011.1 |
| 20260831121204 | 46 | 0 | 0.0 | 2.0 | 0.00 | 0.00 | 0.00 | 58 | 1011.2 |
| 20260831121104 | 46 | 0 | 0.0 | 2.0 | 0.00 | 0.00 | 0.00 | 58 | 1011.2 |
| 20260831121004 | 46 | 0 | 0.0 | 2.0 | 0.00 | 0.00 | 0.00 | 58 | 1011.2 |
| 20260831120904 | 47 | 135 | 1.0 | 2.0 | 0.00 | 0.00 | 0.00 | 58 | 1011.2 |
| 20260831120804 | 46 | 135 | 1.0 | 2.0 | 0.00 | 0.00 | 0.00 | 56 | 1011.2 |
| 20260831120704 | 46 | 0 | 0.0 | 0.0 | 0.00 | 0.00 | 0.00 | 54 | 1011.2 |
| 20260831120604 | 46 | 0 | 0.0 | 0.0 | 0.00 | 0.00 | 0.00 | 54 | 1011.2 |
| 20260831120504 | 46 | 0 | 0.0 | 0.0 | 0.00 | 0.00 | 0.00 | 54 | 1011.1 |
| 20260831120404 | 46 | 0 | 0.0 | 0.0 | 0.00 | 0.00 | 0.00 | 54 | 1011.3 |
| 20260831120304 | 46 | 0 | 0.0 | 1.0 | 0.00 | 0.00 | 0.00 | 54 | 1011.1 |
| 20260831120204 | 46 | 0 | 0.0 | 1.0 | 0.00 | 0.00 | 0.00 | 54 | 1011.2 |
| 20260831120103 | 46 | 0 | 0.0 | 1.0 | 0.00 | 0.00 | 0.00 | 54 | 1011.1 |
| 20260831120004 | 46 | 0 | 0.0 | 1.0 | 0.00 | 0.00 | 0.00 | 54 | 1011.2 |
| 20260831115904 | 47 | 0 | 0.0 | 2.0 | 0.00 | 0.00 | 0.00 | 54 | 1011.2 |
| 20260831115804 | 47 | 0 | 0.0 | 2.0 | 0.00 | 0.00 | 0.00 | 54 | 1011.2 |
| 20260831115704 | 47 | 0 | 0.0 | 2.0 | 0.00 | 0.00 | 0.00 | 54 | 1011.0 |
| 20260831115604 | 47 | 0 | 0.0 | 2.0 | 0.00 | 0.00 | 0.00 | 53 | 1011.1 |
| 20260831115504 | 47 | 0 | 0.0 | 2.0 | 0.00 | 0.00 | 0.00 | 53 | 1011.1 |
| 20260831115403 | 47 | 0 | 0.0 | 2.0 | 0.00 | 0.00 | 0.00 | 53 | 1011.2 |
| 20260831115306 | 47 | 0 | 0.0 | 2.0 | 0.00 | 0.00 | 0.00 | 52 | 1011.2 |
| 20260831115204 | 47 | 0 | 0.0 | 2.0 | 0.00 | 0.00 | 0.00 | 52 | 1011.2 |
| 20260831115104 | 47 | 0 | 0.0 | 2.0 | 0.00 | 0.00 | 0.00 | 52 | 1011.1 |
| 20260831115004 | 47 | 0 | 0.0 | 2.0 | 0.00 | 0.00 | 0.00 | 52 | 1011.3 |
| 20260831114904 | 47 | 0 | 0.0 | 2.0 | 0.00 | 0.00 | 0.00 | 52 | 1011.3 |
| 20260831114804 | 47 | 0 | 0.0 | 2.0 | 0.00 | 0.00 | 0.00 | 52 | 1011.3 |
| 20260831114703 | 48 | 0 | 0.0 | 2.0 | 0.00 | 0.00 | 0.00 | 52 | 1011.3 |
| 20260831114604 | 48 | 0 | 0.0 | 2.0 | 0.00 | 0.00 | 0.00 | 52 | 1011.3 |
| 20260831114504 | 48 | 0 | 0.0 | 2.0 | 0.00 | 0.00 | 0.00 | 52 | 1011.3 |
| 20260831114403 | 48 | 0 | 0.0 | 2.0 | 0.00 | 0.00 | 0.00 | 52 | 1011.1 |
| 20260831114304 | 48 | 0 | 0.0 | 2.0 | 0.00 | 0.00 | 0.00 | 52 | 1011.3 |
| 20260831114204 | 48 | 0 | 0.0 | 2.0 | 0.00 | 0.00 | 0.00 | 52 | 1011.2 |
| 20260831114104 | 48 | 0 | 0.0 | 2.0 | 0.00 | 0.00 | 0.00 | 52 | 1011.2 |
| 20260831114003 | 48 | 0 | 0.0 | 2.0 | 0.00 | 0.00 | 0.00 | 51 | 1011.2 |
| 20260831113904 | 48 | 0 | 0.0 | 1.0 | 0.00 | 0.00 | 0.00 | 51 | 1011.3 |
| 20260831113804 | 48 | 0 | 0.0 | 1.0 | 0.00 | 0.00 | 0.00 | 51 | 1011.3 |
| 20260831113704 | 49 | 0 | 0.0 | 1.0 | 0.00 | 0.00 | 0.00 | 51 | 1011.2 |
| 20260831113604 | 49 | 0 | 0.0 | 1.0 | 0.00 | 0.00 | 0.00 | 51 | 1011.3 |
| 20260831113504 | 49 | 0 | 0.0 | 1.0 | 0.00 | 0.00 | 0.00 | 51 | 1011.3 |
| 20260831113404 | 49 | 0 | 0.0 | 1.0 | 0.00 | 0.00 | 0.00 | 51 | 1011.2 |
| 20260831113304 | 49 | 0 | 0.0 | 1.0 | 0.00 | 0.00 | 0.00 | 51 | 1011.3 |
| 20260831113204 | 49 | 0 | 0.0 | 1.0 | 0.00 | 0.00 | 0.00 | 51 | 1011.3 |
| 20260831113104 | 49 | 0 | 0.0 | 2.0 | 0.00 | 0.00 | 0.00 | 51 | 1011.3 |
| 20260831113004 | 49 | 0 | 0.0 | 2.0 | 0.00 | 0.00 | 0.00 | 50 | 1011.4 |
| 20260831112904 | 49 | 0 | 0.0 | 2.0 | 0.00 | 0.00 | 0.00 | 50 | 1011.3 |
| 20260831112805 | 49 | 0 | 0.0 | 2.0 | 0.00 | 0.00 | 0.00 | 49 | 1011.3 |
| 20260831112104 | 50 | 238 | 1.0 | 2.0 | 0.00 | 0.00 | 0.00 | 46 | 1011.3 |
| 20260831112004 | 50 | 0 | 0.0 | 2.0 | 0.00 | 0.00 | 0.00 | 46 | 1011.2 |
| 20260831111904 | 51 | 0 | 0.0 | 2.0 | 0.00 | 0.00 | 0.00 | 46 | 1011.2 |
| 20260831111804 | 51 | 0 | 0.0 | 2.0 | 0.00 | 0.00 | 0.00 | 45 | 1011.3 |
| 20260831111704 | 51 | 0 | 0.0 | 2.0 | 0.00 | 0.00 | 0.00 | 45 | 1011.3 |
| 20260831111603 | 51 | 195 | 1.0 | 2.0 | 0.00 | 0.00 | 0.00 | 45 | 1011.2 |
| 20260831111504 | 51 | 178 | 2.0 | 2.0 | 0.00 | 0.00 | 0.00 | 45 | 1011.2 |
| 20260831111404 | 51 | 148 | 1.0 | 2.0 | 0.00 | 0.00 | 0.00 | 45 | 1011.2 |
| 20260831111304 | 51 | 0 | 0.0 | 1.0 | 0.00 | 0.00 | 0.00 | 45 | 1011.2 |
| 20260831111203 | 51 | 0 | 0.0 | 1.0 | 0.00 | 0.00 | 0.00 | 45 | 1011.2 |
| 20260831111104 | 51 | 0 | 0.0 | 1.0 | 0.00 | 0.00 | 0.00 | 45 | 1011.2 |
| 20260831111004 | 51 | 0 | 0.0 | 1.0 | 0.00 | 0.00 | 0.00 | 45 | 1011.2 |
| 20260831110904 | 52 | 0 | 0.0 | 1.0 | 0.00 | 0.00 | 0.00 | 45 | 1011.2 |
| 20260831110804 | 52 | 0 | 0.0 | 2.0 | 0.00 | 0.00 | 0.00 | 45 | 1011.2 |
| 20260831110704 | 52 | 0 | 0.0 | 2.0 | 0.00 | 0.00 | 0.00 | 45 | 1011.2 |
| 20260831110604 | 52 | 0 | 0.0 | 2.0 | 0.00 | 0.00 | 0.00 | 45 | 1011.3 |
| 20260831110504 | 52 | 0 | 0.0 | 2.0 | 0.00 | 0.00 | 0.00 | 45 | 1011.3 |
| 20260831110404 | 52 | 0 | 0.0 | 2.0 | 0.00 | 0.00 | 0.00 | 45 | 1011.4 |
| 20260831110304 | 52 | 0 | 0.0 | 2.0 | 0.00 | 0.00 | 0.00 | 45 | 1011.4 |
| 20260831110204 | 52 | 0 | 0.0 | 2.0 | 0.00 | 0.00 | 0.00 | 45 | 1011.3 |
| 20260831110104 | 52 | 0 | 0.0 | 3.0 | 0.00 | 0.00 | 0.00 | 45 | 1011.3 |
| 20260831110004 | 52 | 0 | 0.0 | 3.0 | 0.00 | 0.00 | 0.00 | 45 | 1011.3 |
| 20260831105905 | 52 | 0 | 0.0 | 3.0 | 0.00 | 0.00 | 0.00 | 45 | 1011.3 |
| 20260831105803 | 52 | 0 | 0.0 | 3.0 | 0.00 | 0.00 | 0.00 | 45 | 1011.3 |
| 20260831105703 | 52 | 0 | 0.0 | 4.0 | 0.00 | 0.00 | 0.00 | 45 | 1011.3 |
| 20260831105604 | 52 | 0 | 0.0 | 4.0 | 0.00 | 0.00 | 0.00 | 45 | 1011.3 |
| 20260831105504 | 52 | 103 | 1.0 | 4.0 | 0.00 | 0.00 | 0.00 | 45 | 1011.3 |
| 20260831105403 | 52 | 102 | 1.0 | 4.0 | 0.00 | 0.00 | 0.00 | 45 | 1011.3 |
| 20260831105306 | 52 | 105 | 1.0 | 4.0 | 0.00 | 0.00 | 0.00 | 45 | 1011.4 |
| 20260831105204 | 51 | 109 | 2.0 | 4.0 | 0.00 | 0.00 | 0.00 | 46 | 1011.4 |
| 20260831105104 | 51 | 113 | 2.0 | 4.0 | 0.00 | 0.00 | 0.00 | 46 | 1011.3 |
| 20260831105004 | 51 | 114 | 2.0 | 4.0 | 0.00 | 0.00 | 0.00 | 46 | 1011.4 |
| 20260831104904 | 51 | 114 | 1.0 | 4.0 | 0.00 | 0.00 | 0.00 | 46 | 1011.2 |
| 20260831104804 | 51 | 115 | 2.0 | 4.0 | 0.00 | 0.00 | 0.00 | 47 | 1011.3 |
| 20260831104704 | 51 | 110 | 2.0 | 4.0 | 0.00 | 0.00 | 0.00 | 47 | 1011.4 |
| 20260831104604 | 51 | 113 | 1.0 | 4.0 | 0.00 | 0.00 | 0.00 | 47 | 1011.2 |
| 20260831104503 | 51 | 113 | 1.0 | 4.0 | 0.00 | 0.00 | 0.00 | 47 | 1011.3 |
| 20260831104404 | 51 | 112 | 2.0 | 4.0 | 0.00 | 0.00 | 0.00 | 48 | 1011.3 |
| 20260831104304 | 51 | 110 | 1.0 | 4.0 | 0.00 | 0.00 | 0.00 | 48 | 1011.3 |
| 20260831104203 | 51 | 0 | 0.0 | 4.0 | 0.00 | 0.00 | 0.00 | 48 | 1011.2 |
| 20260831104104 | 51 | 106 | 2.0 | 4.0 | 0.00 | 0.00 | 0.00 | 48 | 1011.3 |
| 20260831104004 | 51 | 110 | 2.0 | 3.0 | 0.00 | 0.00 | 0.00 | 48 | 1011.2 |
| 20260831103904 | 51 | 115 | 1.0 | 3.0 | 0.00 | 0.00 | 0.00 | 48 | 1011.3 |
| 20260831103803 | 51 | 123 | 2.0 | 3.0 | 0.00 | 0.00 | 0.00 | 48 | 1011.2 |
| 20260831103704 | 51 | 132 | 2.0 | 3.0 | 0.00 | 0.00 | 0.00 | 48 | 1011.2 |
| 20260831102503 | 53 | 0 | 0.0 | 3.0 | 0.00 | 0.00 | 0.00 | 45 | 1011.2 |
| 20260831102404 | 53 | 218 | 1.0 | 3.0 | 0.00 | 0.00 | 0.00 | 45 | 1011.3 |
| 20260831102306 | 53 | 223 | 1.0 | 3.0 | 0.00 | 0.00 | 0.00 | 45 | 1011.3 |
| 20260831102204 | 53 | 224 | 1.0 | 3.0 | 0.00 | 0.00 | 0.00 | 44 | 1011.4 |
| 20260831102103 | 53 | 212 | 2.0 | 3.0 | 0.00 | 0.00 | 0.00 | 43 | 1011.3 |
| 20260831102004 | 53 | 182 | 1.0 | 3.0 | 0.00 | 0.00 | 0.00 | 41 | 1011.4 |
| 20260831101904 | 54 | 153 | 1.0 | 3.0 | 0.00 | 0.00 | 0.00 | 40 | 1011.3 |
| 20260831101803 | 54 | 134 | 1.0 | 3.0 | 0.00 | 0.00 | 0.00 | 40 | 1011.3 |
| 20260831101704 | 54 | 120 | 2.0 | 3.0 | 0.00 | 0.00 | 0.00 | 39 | 1011.4 |
| 20260831101604 | 54 | 0 | 0.0 | 3.0 | 0.00 | 0.00 | 0.00 | 39 | 1011.4 |
| 20260831101503 | 54 | 0 | 0.0 | 3.0 | 0.00 | 0.00 | 0.00 | 39 | 1011.4 |
| 20260831101404 | 54 | 0 | 0.0 | 3.0 | 0.00 | 0.00 | 0.00 | 39 | 1011.3 |
| 20260831100804 | 55 | 91 | 1.0 | 3.0 | 0.00 | 0.00 | 0.00 | 38 | 1011.3 |
| 20260831100704 | 55 | 90 | 2.0 | 3.0 | 0.00 | 0.00 | 0.00 | 38 | 1011.2 |
| 20260831100604 | 55 | 91 | 2.0 | 3.0 | 0.00 | 0.00 | 0.00 | 38 | 1011.2 |
| 20260831100504 | 55 | 94 | 2.0 | 3.0 | 0.00 | 0.00 | 0.00 | 38 | 1011.3 |
| 20260831100404 | 55 | 94 | 2.0 | 3.0 | 0.00 | 0.00 | 0.00 | 38 | 1011.2 |
| 20260831100304 | 55 | 94 | 2.0 | 3.0 | 0.00 | 0.00 | 0.00 | 38 | 1011.3 |
| 20260831100204 | 55 | 95 | 2.0 | 3.0 | 0.00 | 0.00 | 0.00 | 38 | 1011.2 |
| 20260831100103 | 55 | 95 | 2.0 | 3.0 | 0.00 | 0.00 | 0.00 | 38 | 1011.2 |
| 20260831100004 | 55 | 91 | 2.0 | 4.0 | 0.00 | 0.00 | 0.00 | 38 | 1011.3 |
| 20260831095904 | 55 | 90 | 2.0 | 4.0 | 0.00 | 0.00 | 0.00 | 38 | 1011.2 |
| 20260831095804 | 55 | 90 | 2.0 | 4.0 | 0.00 | 0.00 | 0.00 | 38 | 1011.2 |
| 20260831095704 | 55 | 90 | 1.0 | 4.0 | 0.00 | 0.00 | 0.00 | 38 | 1011.2 |
| 20260831095604 | 55 | 89 | 1.0 | 4.0 | 0.00 | 0.00 | 0.00 | 38 | 1011.0 |
| 20260831095504 | 55 | 86 | 2.0 | 4.0 | 0.00 | 0.00 | 0.00 | 38 | 1011.2 |
| 20260831095404 | 55 | 86 | 2.0 | 4.0 | 0.00 | 0.00 | 0.00 | 38 | 1011.2 |
| 20260831095306 | 55 | 86 | 2.0 | 4.0 | 0.00 | 0.00 | 0.00 | 38 | 1011.2 |
| 20260831095203 | 55 | 87 | 2.0 | 4.0 | 0.00 | 0.00 | 0.00 | 38 | 1011.1 |
| 20260831095104 | 55 | 87 | 2.0 | 4.0 | 0.00 | 0.00 | 0.00 | 38 | 1011.2 |
| 20260831095004 | 55 | 88 | 2.0 | 4.0 | 0.00 | 0.00 | 0.00 | 38 | 1011.2 |
| 20260831094903 | 55 | 90 | 3.0 | 4.0 | 0.00 | 0.00 | 0.00 | 38 | 1011.2 |
| 20260831094804 | 55 | 90 | 3.0 | 4.0 | 0.00 | 0.00 | 0.00 | 38 | 1011.2 |
| 20260831094704 | 55 | 90 | 3.0 | 4.0 | 0.00 | 0.00 | 0.00 | 38 | 1011.2 |
| 20260831093605 | 55 | 90 | 3.0 | 4.0 | 0.00 | 0.00 | 0.00 | 38 | 1011.1 |
| 20260831093503 | 55 | 90 | 3.0 | 4.0 | 0.00 | 0.00 | 0.00 | 38 | 1011.1 |
| 20260831093404 | 55 | 90 | 2.0 | 4.0 | 0.00 | 0.00 | 0.00 | 38 | 1011.1 |
| 20260831093304 | 55 | 90 | 2.0 | 4.0 | 0.00 | 0.00 | 0.00 | 38 | 1011.1 |
| 20260831093204 | 55 | 93 | 2.0 | 4.0 | 0.00 | 0.00 | 0.00 | 38 | 1011.1 |
| 20260831093103 | 55 | 95 | 2.0 | 4.0 | 0.00 | 0.00 | 0.00 | 38 | 1011.1 |
| 20260831093004 | 55 | 98 | 2.0 | 4.0 | 0.00 | 0.00 | 0.00 | 38 | 1011.0 |
| 20260831092904 | 55 | 98 | 3.0 | 4.0 | 0.00 | 0.00 | 0.00 | 38 | 1011.1 |
| 20260831092804 | 55 | 97 | 3.0 | 4.0 | 0.00 | 0.00 | 0.00 | 38 | 1011.2 |
| 20260831092704 | 55 | 98 | 2.0 | 4.0 | 0.00 | 0.00 | 0.00 | 37 | 1011.1 |
| 20260831092604 | 55 | 98 | 2.0 | 4.0 | 0.00 | 0.00 | 0.00 | 37 | 1011.1 |
| 20260831092503 | 55 | 98 | 2.0 | 4.0 | 0.00 | 0.00 | 0.00 | 37 | 1011.1 |
| 20260831092404 | 55 | 100 | 2.0 | 4.0 | 0.00 | 0.00 | 0.00 | 37 | 1011.1 |
| 20260831092306 | 55 | 103 | 1.0 | 4.0 | 0.00 | 0.00 | 0.00 | 37 | 1011.0 |
| 20260831092204 | 55 | 101 | 1.0 | 4.0 | 0.00 | 0.00 | 0.00 | 37 | 1011.0 |
| 20260831092103 | 55 | 102 | 1.0 | 4.0 | 0.00 | 0.00 | 0.00 | 37 | 1011.1 |
| 20260831092004 | 55 | 104 | 1.0 | 4.0 | 0.00 | 0.00 | 0.00 | 37 | 1011.1 |
| 20260831091904 | 55 | 105 | 3.0 | 4.0 | 0.00 | 0.00 | 0.00 | 37 | 1011.1 |
| 20260831091803 | 55 | 110 | 2.0 | 4.0 | 0.00 | 0.00 | 0.00 | 37 | 1011.1 |
| 20260831091704 | 55 | 113 | 2.0 | 4.0 | 0.00 | 0.00 | 0.00 | 37 | 1011.2 |
| 20260831091604 | 56 | 113 | 1.0 | 4.0 | 0.00 | 0.00 | 0.00 | 37 | 1011.1 |
| 20260831091504 | 56 | 113 | 1.0 | 4.0 | 0.00 | 0.00 | 0.00 | 36 | 1011.1 |
| 20260831091404 | 56 | 109 | 1.0 | 4.0 | 0.00 | 0.00 | 0.00 | 36 | 1011.1 |
| 20260831091304 | 56 | 106 | 1.0 | 4.0 | 0.00 | 0.00 | 0.00 | 36 | 1011.2 |
| 20260831091204 | 56 | 102 | 1.0 | 4.0 | 0.00 | 0.00 | 0.00 | 37 | 1011.1 |
| 20260831091104 | 56 | 99 | 1.0 | 4.0 | 0.00 | 0.00 | 0.00 | 36 | 1011.1 |
| 20260831091003 | 56 | 96 | 2.0 | 4.0 | 0.00 | 0.00 | 0.00 | 36 | 1011.1 |
| 20260831090904 | 56 | 93 | 2.0 | 4.0 | 0.00 | 0.00 | 0.00 | 36 | 1011.2 |
| 20260831090704 | 56 | 90 | 2.0 | 4.0 | 0.00 | 0.00 | 0.00 | 37 | 1011.1 |
| 20260831090604 | 56 | 90 | 2.0 | 5.0 | 0.00 | 0.00 | 0.00 | 37 | 1011.1 |
| 20260831090503 | 56 | 90 | 2.0 | 5.0 | 0.00 | 0.00 | 0.00 | 37 | 1011.1 |
| 20260831090404 | 56 | 90 | 2.0 | 5.0 | 0.00 | 0.00 | 0.00 | 37 | 1011.1 |
| 20260831090304 | 56 | 88 | 2.0 | 5.0 | 0.00 | 0.00 | 0.00 | 37 | 1011.1 |
| 20260831090203 | 56 | 87 | 2.0 | 5.0 | 0.00 | 0.00 | 0.00 | 37 | 1011.1 |
| 20260831090104 | 56 | 87 | 2.0 | 5.0 | 0.00 | 0.00 | 0.00 | 37 | 1011.2 |
| 20260831090004 | 56 | 87 | 2.0 | 5.0 | 0.00 | 0.00 | 0.00 | 37 | 1011.2 |
| 20260831085904 | 55 | 87 | 2.0 | 5.0 | 0.00 | 0.00 | 0.00 | 37 | 1011.2 |
| 20260831085804 | 55 | 87 | 2.0 | 5.0 | 0.00 | 0.00 | 0.00 | 37 | 1011.2 |
| 20260831085704 | 55 | 87 | 3.0 | 5.0 | 0.00 | 0.00 | 0.00 | 37 | 1011.3 |
| 20260831085604 | 55 | 87 | 4.0 | 5.0 | 0.00 | 0.00 | 0.00 | 37 | 1011.2 |
| 20260831085504 | 55 | 87 | 4.0 | 5.0 | 0.00 | 0.00 | 0.00 | 37 | 1011.3 |
| 20260831085403 | 55 | 87 | 4.0 | 4.0 | 0.00 | 0.00 | 0.00 | 37 | 1011.1 |
| 20260831085306 | 55 | 89 | 4.0 | 4.0 | 0.00 | 0.00 | 0.00 | 37 | 1011.2 |
| 20260831085205 | 55 | 90 | 3.0 | 4.0 | 0.00 | 0.00 | 0.00 | 37 | 1011.1 |
| 20260831084503 | 55 | 95 | 2.0 | 4.0 | 0.00 | 0.00 | 0.00 | 37 | 1011.1 |
| 20260831084404 | 55 | 90 | 2.0 | 4.0 | 0.00 | 0.00 | 0.00 | 37 | 1011.1 |
| 20260831084304 | 55 | 90 | 2.0 | 4.0 | 0.00 | 0.00 | 0.00 | 37 | 1011.3 |
| 20260831084203 | 56 | 90 | 2.0 | 4.0 | 0.00 | 0.00 | 0.00 | 37 | 1011.2 |
| 20260831084104 | 56 | 90 | 2.0 | 4.0 | 0.00 | 0.00 | 0.00 | 37 | 1011.2 |
| 20260831084004 | 56 | 90 | 2.0 | 4.0 | 0.00 | 0.00 | 0.00 | 37 | 1011.1 |
| 20260831083403 | 56 | 90 | 3.0 | 4.0 | 0.00 | 0.00 | 0.00 | 37 | 1011.2 |
| 20260831083303 | 56 | 90 | 2.0 | 4.0 | 0.00 | 0.00 | 0.00 | 37 | 1011.3 |
| 20260831083204 | 56 | 90 | 2.0 | 4.0 | 0.00 | 0.00 | 0.00 | 37 | 1011.2 |
| 20260831083104 | 56 | 90 | 2.0 | 4.0 | 0.00 | 0.00 | 0.00 | 37 | 1011.3 |
| 20260831083004 | 56 | 90 | 2.0 | 4.0 | 0.00 | 0.00 | 0.00 | 38 | 1011.2 |
| 20260831082903 | 56 | 90 | 2.0 | 4.0 | 0.00 | 0.00 | 0.00 | 38 | 1011.1 |
| 20260831082804 | 56 | 90 | 2.0 | 4.0 | 0.00 | 0.00 | 0.00 | 38 | 1011.2 |
| 20260831082704 | 56 | 88 | 2.0 | 4.0 | 0.00 | 0.00 | 0.00 | 39 | 1011.2 |
| 20260831082604 | 56 | 86 | 3.0 | 4.0 | 0.00 | 0.00 | 0.00 | 39 | 1011.3 |
| 20260831082503 | 56 | 86 | 3.0 | 4.0 | 0.00 | 0.00 | 0.00 | 40 | 1011.2 |
| 20260831082404 | 55 | 85 | 4.0 | 4.0 | 0.00 | 0.00 | 0.00 | 40 | 1011.2 |
| 20260831081803 | 56 | 85 | 2.0 | 3.0 | 0.00 | 0.00 | 0.00 | 38 | 1011.3 |
| 20260831081704 | 56 | 89 | 2.0 | 3.0 | 0.00 | 0.00 | 0.00 | 38 | 1011.3 |
| 20260831081604 | 56 | 99 | 1.0 | 2.0 | 0.00 | 0.00 | 0.00 | 37 | 1011.3 |
| 20260831081504 | 56 | 0 | 0.0 | 2.0 | 0.00 | 0.00 | 0.00 | 37 | 1011.4 |
| 20260831081403 | 57 | 0 | 0.0 | 2.0 | 0.00 | 0.00 | 0.00 | 37 | 1011.4 |
| 20260831081304 | 57 | 105 | 1.0 | 2.0 | 0.00 | 0.00 | 0.00 | 37 | 1011.3 |
| 20260831081204 | 57 | 94 | 1.0 | 2.0 | 0.00 | 0.00 | 0.00 | 36 | 1011.4 |
| 20260831081104 | 57 | 0 | 0.0 | 2.0 | 0.00 | 0.00 | 0.00 | 36 | 1011.3 |
| 20260831081004 | 57 | 0 | 0.0 | 1.0 | 0.00 | 0.00 | 0.00 | 35 | 1011.3 |
| 20260831080904 | 58 | 0 | 0.0 | 1.0 | 0.00 | 0.00 | 0.00 | 35 | 1011.4 |
| 20260831080804 | 58 | 0 | 0.0 | 1.0 | 0.00 | 0.00 | 0.00 | 35 | 1011.4 |
| 20260831080704 | 59 | 0 | 0.0 | 1.0 | 0.00 | 0.00 | 0.00 | 33 | 1011.4 |
| 20260831080204 | 59 | 0 | 0.0 | 2.0 | 0.00 | 0.00 | 0.00 | 33 | 1011.4 |
| 20260831080104 | 59 | 0 | 0.0 | 2.0 | 0.00 | 0.00 | 0.00 | 33 | 1011.3 |
| 20260831080004 | 59 | 0 | 0.0 | 2.0 | 0.00 | 0.00 | 0.00 | 33 | 1011.3 |
| 20260831075903 | 59 | 0 | 0.0 | 2.0 | 0.00 | 0.00 | 0.00 | 33 | 1011.4 |
| 20260831075803 | 59 | 0 | 0.0 | 2.0 | 0.00 | 0.00 | 0.00 | 33 | 1011.3 |
| 20260831075704 | 59 | 0 | 0.0 | 2.0 | 0.00 | 0.00 | 0.00 | 33 | 1011.3 |
| 20260831075604 | 59 | 0 | 0.0 | 2.0 | 0.00 | 0.00 | 0.00 | 33 | 1011.3 |
| 20260831075503 | 59 | 0 | 0.0 | 2.0 | 0.00 | 0.00 | 0.00 | 33 | 1011.3 |
| 20260831075404 | 59 | 0 | 0.0 | 2.0 | 0.00 | 0.00 | 0.00 | 33 | 1011.4 |
| 20260831075306 | 59 | 0 | 0.0 | 2.0 | 0.00 | 0.00 | 0.00 | 33 | 1011.4 |
| 20260831075203 | 59 | 0 | 0.0 | 2.0 | 0.00 | 0.00 | 0.00 | 33 | 1011.4 |
| 20260831075104 | 59 | 0 | 0.0 | 2.0 | 0.00 | 0.00 | 0.00 | 33 | 1011.4 |
| 20260831074404 | 60 | 0 | 0.0 | 3.0 | 0.00 | 0.00 | 0.00 | 32 | 1011.3 |
| 20260831074304 | 60 | 0 | 0.0 | 4.0 | 0.00 | 0.00 | 0.00 | 32 | 1011.4 |
| 20260831074204 | 60 | 0 | 0.0 | 4.0 | 0.00 | 0.00 | 0.00 | 32 | 1011.4 |
| 20260831074103 | 60 | 249 | 1.0 | 4.0 | 0.00 | 0.00 | 0.00 | 32 | 1011.4 |
| 20260831074004 | 60 | 0 | 0.0 | 4.0 | 0.00 | 0.00 | 0.00 | 32 | 1011.4 |
| 20260831073905 | 60 | 0 | 0.0 | 4.0 | 0.00 | 0.00 | 0.00 | 32 | 1011.4 |
| 20260831073803 | 60 | 0 | 0.0 | 4.0 | 0.00 | 0.00 | 0.00 | 33 | 1011.2 |
| 20260831073704 | 60 | 0 | 0.0 | 4.0 | 0.00 | 0.00 | 0.00 | 32 | 1011.4 |
| 20260831073604 | 60 | 0 | 0.0 | 4.0 | 0.00 | 0.00 | 0.00 | 33 | 1011.4 |
| 20260831073504 | 60 | 207 | 1.0 | 4.0 | 0.00 | 0.00 | 0.00 | 33 | 1011.4 |
| 20260831073404 | 60 | 197 | 2.0 | 4.0 | 0.00 | 0.00 | 0.00 | 33 | 1011.3 |
| 20260831073304 | 60 | 200 | 2.0 | 4.0 | 0.00 | 0.00 | 0.00 | 33 | 1011.3 |
| 20260831073204 | 60 | 0 | 0.0 | 4.0 | 0.00 | 0.00 | 0.00 | 34 | 1011.4 |
| 20260831073103 | 60 | 150 | 1.0 | 4.0 | 0.00 | 0.00 | 0.00 | 34 | 1011.2 |
| 20260831073004 | 60 | 0 | 0.0 | 4.0 | 0.00 | 0.00 | 0.00 | 34 | 1011.3 |
| 20260831072904 | 60 | 0 | 0.0 | 4.0 | 0.00 | 0.00 | 0.00 | 34 | 1011.3 |
| 20260831072804 | 60 | 0 | 0.0 | 4.0 | 0.00 | 0.00 | 0.00 | 35 | 1011.3 |
| 20260831072703 | 60 | 0 | 0.0 | 4.0 | 0.00 | 0.00 | 0.00 | 35 | 1011.2 |
| 20260831072604 | 60 | 135 | 1.0 | 4.0 | 0.00 | 0.00 | 0.00 | 35 | 1011.3 |
| 20260831072504 | 60 | 0 | 0.0 | 4.0 | 0.00 | 0.00 | 0.00 | 34 | 1011.3 |
| 20260831072404 | 60 | 0 | 0.0 | 4.0 | 0.00 | 0.00 | 0.00 | 35 | 1011.1 |
| 20260831072306 | 60 | 131 | 1.0 | 4.0 | 0.00 | 0.00 | 0.00 | 35 | 1011.3 |
| 20260831072204 | 59 | 135 | 1.0 | 4.0 | 0.00 | 0.00 | 0.00 | 37 | 1011.3 |
| 20260831071704 | 59 | 125 | 1.0 | 4.0 | 0.00 | 0.00 | 0.00 | 37 | 1011.3 |
| 20260831071604 | 59 | 118 | 1.0 | 4.0 | 0.00 | 0.00 | 0.00 | 37 | 1011.2 |
| 20260831071504 | 59 | 115 | 1.0 | 4.0 | 0.00 | 0.00 | 0.00 | 37 | 1011.4 |
| 20260831071404 | 59 | 110 | 1.0 | 2.0 | 0.00 | 0.00 | 0.00 | 37 | 1011.3 |
| 20260831071305 | 59 | 112 | 1.0 | 2.0 | 0.00 | 0.00 | 0.00 | 37 | 1011.3 |
| 20260831071204 | 59 | 101 | 1.0 | 4.0 | 0.00 | 0.00 | 0.00 | 38 | 1011.3 |
| 20260831070604 | 59 | 0 | 0.0 | 4.0 | 0.00 | 0.00 | 0.00 | 39 | 1011.3 |
| 20260831070504 | 59 | 0 | 0.0 | 4.0 | 0.00 | 0.00 | 0.00 | 39 | 1011.2 |
| 20260831070404 | 59 | 104 | 1.0 | 4.0 | 0.00 | 0.00 | 0.00 | 39 | 1011.2 |
| 20260831070303 | 59 | 104 | 1.0 | 4.0 | 0.00 | 0.00 | 0.00 | 39 | 1011.2 |
| 20260831070204 | 59 | 105 | 2.0 | 4.0 | 0.00 | 0.00 | 0.00 | 39 | 1011.1 |
| 20260831070104 | 59 | 100 | 2.0 | 4.0 | 0.00 | 0.00 | 0.00 | 39 | 1011.2 |
| 20260831070007 | 59 | 100 | 1.0 | 4.0 | 0.00 | 0.00 | 0.00 | 40 | 1011.2 |
| 20260831065904 | 59 | 100 | 1.0 | 4.0 | 0.00 | 0.00 | 0.00 | 40 | 1011.2 |
| 20260831065804 | 59 | 100 | 1.0 | 4.0 | 0.00 | 0.00 | 0.00 | 40 | 1011.2 |
| 20260831065704 | 59 | 100 | 2.0 | 4.0 | 0.00 | 0.00 | 0.00 | 40 | 1011.2 |
| 20260831065604 | 59 | 100 | 1.0 | 4.0 | 0.00 | 0.00 | 0.00 | 40 | 1011.2 |
| 20260831065504 | 60 | 0 | 0.0 | 4.0 | 0.00 | 0.00 | 0.00 | 40 | 1011.1 |
| 20260831065404 | 60 | 0 | 0.0 | 4.0 | 0.00 | 0.00 | 0.00 | 40 | 1011.2 |
| 20260831065306 | 60 | 90 | 2.0 | 4.0 | 0.00 | 0.00 | 0.00 | 40 | 1011.1 |
| 20260831065204 | 60 | 89 | 2.0 | 3.0 | 0.00 | 0.00 | 0.00 | 39 | 1011.0 |
| 20260831065104 | 60 | 95 | 2.0 | 3.0 | 0.00 | 0.00 | 0.00 | 38 | 1011.0 |
| 20260831065003 | 60 | 96 | 2.0 | 3.0 | 0.00 | 0.00 | 0.00 | 38 | 1011.1 |
| 20260831064903 | 61 | 98 | 2.0 | 3.0 | 0.00 | 0.00 | 0.00 | 37 | 1011.0 |
| 20260831064804 | 61 | 105 | 1.0 | 3.0 | 0.00 | 0.00 | 0.00 | 36 | 1011.0 |
| 20260831064704 | 61 | 109 | 2.0 | 3.0 | 0.00 | 0.00 | 0.00 | 35 | 1011.0 |
| 20260831064603 | 62 | 0 | 0.0 | 2.0 | 0.00 | 0.00 | 0.00 | 35 | 1011.1 |
| 20260831064504 | 62 | 0 | 0.0 | 2.0 | 0.00 | 0.00 | 0.00 | 34 | 1011.1 |
| 20260831064404 | 62 | 121 | 1.0 | 2.0 | 0.00 | 0.00 | 0.00 | 33 | 1011.0 |
| 20260831064303 | 62 | 130 | 2.0 | 2.0 | 0.00 | 0.00 | 0.00 | 34 | 1011.1 |
| 20260831064203 | 62 | 0 | 0.0 | 2.0 | 0.00 | 0.00 | 0.00 | 34 | 1011.1 |
| 20260831064104 | 62 | 0 | 0.0 | 3.0 | 0.00 | 0.00 | 0.00 | 34 | 1011.1 |
| 20260831064004 | 62 | 0 | 0.0 | 4.0 | 0.00 | 0.00 | 0.00 | 34 | 1011.1 |
| 20260831063904 | 62 | 144 | 1.0 | 4.0 | 0.00 | 0.00 | 0.00 | 34 | 1011.0 |
| 20260831063803 | 62 | 150 | 1.0 | 4.0 | 0.00 | 0.00 | 0.00 | 34 | 1011.0 |
| 20260831063704 | 62 | 154 | 2.0 | 4.0 | 0.00 | 0.00 | 0.00 | 34 | 1011.1 |
| 20260831063604 | 62 | 155 | 1.0 | 4.0 | 0.00 | 0.00 | 0.00 | 33 | 1011.1 |
| 20260831063503 | 62 | 0 | 0.0 | 4.0 | 0.00 | 0.00 | 0.00 | 33 | 1011.0 |
| 20260831063404 | 62 | 0 | 0.0 | 4.0 | 0.00 | 0.00 | 0.00 | 33 | 1011.0 |
| 20260831063304 | 62 | 0 | 0.0 | 4.0 | 0.00 | 0.00 | 0.00 | 33 | 1011.0 |
| 20260831063203 | 62 | 158 | 2.0 | 4.0 | 0.00 | 0.00 | 0.00 | 33 | 1010.9 |
| 20260831063104 | 62 | 161 | 2.0 | 4.0 | 0.00 | 0.00 | 0.00 | 33 | 1010.9 |
| 20260831063004 | 62 | 167 | 2.0 | 3.0 | 0.00 | 0.00 | 0.00 | 32 | 1011.0 |
| 20260831062904 | 62 | 169 | 2.0 | 3.0 | 0.00 | 0.00 | 0.00 | 32 | 1011.0 |
| 20260831062804 | 61 | 168 | 2.0 | 3.0 | 0.00 | 0.00 | 0.00 | 32 | 1011.0 |
| 20260831062703 | 61 | 166 | 2.0 | 3.0 | 0.00 | 0.00 | 0.00 | 32 | 1011.0 |
| 20260831062604 | 61 | 170 | 1.0 | 3.0 | 0.00 | 0.00 | 0.00 | 32 | 1011.0 |
| 20260831062504 | 62 | 172 | 1.0 | 3.0 | 0.00 | 0.00 | 0.00 | 32 | 1011.1 |
| 20260831062404 | 62 | 173 | 2.0 | 3.0 | 0.00 | 0.00 | 0.00 | 31 | 1010.9 |
| 20260831062305 | 62 | 172 | 2.0 | 3.0 | 0.00 | 0.00 | 0.00 | 31 | 1011.1 |
| 20260831062204 | 62 | 173 | 1.0 | 3.0 | 0.00 | 0.00 | 0.00 | 30 | 1011.1 |
| 20260831062103 | 62 | 177 | 2.0 | 3.0 | 0.00 | 0.00 | 0.00 | 29 | 1011.0 |
| 20260831062003 | 62 | 177 | 2.0 | 3.0 | 0.00 | 0.00 | 0.00 | 28 | 1011.0 |
| 20260831061904 | 62 | 0 | 0.0 | 2.0 | 0.00 | 0.00 | 0.00 | 27 | 1011.0 |
| 20260831061804 | 62 | 0 | 0.0 | 2.0 | 0.00 | 0.00 | 0.00 | 27 | 1011.1 |
| 20260831061703 | 63 | 0 | 0.0 | 2.0 | 0.00 | 0.00 | 0.00 | 27 | 1011.0 |
| 20260831061604 | 63 | 0 | 0.0 | 2.0 | 0.00 | 0.00 | 0.00 | 26 | 1011.0 |
| 20260831061504 | 63 | 0 | 0.0 | 2.0 | 0.00 | 0.00 | 0.00 | 26 | 1011.0 |
| 20260831061403 | 63 | 262 | 1.0 | 2.0 | 0.00 | 0.00 | 0.00 | 26 | 1011.0 |
| 20260831061304 | 63 | 0 | 0.0 | 2.0 | 0.00 | 0.00 | 0.00 | 25 | 1011.0 |
| 20260831061204 | 64 | 0 | 0.0 | 2.0 | 0.00 | 0.00 | 0.00 | 25 | 1011.0 |
| 20260831061103 | 64 | 0 | 0.0 | 2.0 | 0.00 | 0.00 | 0.00 | 24 | 1011.0 |
| 20260831061004 | 64 | 0 | 0.0 | 2.0 | 0.00 | 0.00 | 0.00 | 24 | 1010.9 |
| 20260831060904 | 64 | 0 | 0.0 | 3.0 | 0.00 | 0.00 | 0.00 | 24 | 1011.0 |
| 20260831060803 | 64 | 0 | 0.0 | 3.0 | 0.00 | 0.00 | 0.00 | 24 | 1010.9 |
| 20260831060704 | 65 | 261 | 2.0 | 3.0 | 0.00 | 0.00 | 0.00 | 23 | 1011.0 |
| 20260831060604 | 65 | 256 | 2.0 | 3.0 | 0.00 | 0.00 | 0.00 | 23 | 1011.0 |
| 20260831060504 | 65 | 252 | 2.0 | 3.0 | 0.00 | 0.00 | 0.00 | 23 | 1010.9 |
| 20260831060404 | 65 | 247 | 2.0 | 3.0 | 0.00 | 0.00 | 0.00 | 23 | 1011.0 |
| 20260831060303 | 65 | 243 | 2.0 | 3.0 | 0.00 | 0.00 | 0.00 | 23 | 1010.9 |
| 20260831060204 | 65 | 238 | 2.0 | 3.0 | 0.00 | 0.00 | 0.00 | 23 | 1010.9 |
| 20260831060104 | 65 | 238 | 2.0 | 3.0 | 0.00 | 0.00 | 0.00 | 23 | 1011.0 |
| 20260831060004 | 65 | 239 | 2.0 | 3.0 | 0.00 | 0.00 | 0.00 | 23 | 1011.0 |
| 20260831055904 | 65 | 239 | 2.0 | 3.0 | 0.00 | 0.00 | 0.00 | 22 | 1011.0 |
| 20260831055804 | 65 | 234 | 1.0 | 3.0 | 0.00 | 0.00 | 0.00 | 23 | 1010.9 |
| 20260831055704 | 65 | 234 | 1.0 | 3.0 | 0.00 | 0.00 | 0.00 | 23 | 1010.9 |
| 20260831055603 | 64 | 234 | 2.0 | 3.0 | 0.00 | 0.00 | 0.00 | 23 | 1010.9 |
| 20260831055504 | 64 | 234 | 2.0 | 3.0 | 0.00 | 0.00 | 0.00 | 23 | 1010.9 |
| 20260831055404 | 64 | 234 | 2.0 | 3.0 | 0.00 | 0.00 | 0.00 | 23 | 1011.0 |
| 20260831055306 | 64 | 238 | 2.0 | 3.0 | 0.00 | 0.00 | 0.00 | 23 | 1011.0 |
| 20260831055203 | 64 | 237 | 2.0 | 3.0 | 0.00 | 0.00 | 0.00 | 23 | 1010.9 |
| 20260831055104 | 64 | 234 | 2.0 | 4.0 | 0.00 | 0.00 | 0.00 | 23 | 1011.0 |
| 20260831055004 | 64 | 229 | 2.0 | 4.0 | 0.00 | 0.00 | 0.00 | 23 | 1011.0 |
| 20260831054904 | 64 | 229 | 2.0 | 4.0 | 0.00 | 0.00 | 0.00 | 23 | 1011.0 |
| 20260831054804 | 64 | 229 | 2.0 | 4.0 | 0.00 | 0.00 | 0.00 | 23 | 1011.0 |
| 20260831054704 | 64 | 229 | 1.0 | 4.0 | 0.00 | 0.00 | 0.00 | 22 | 1011.1 |
| 20260831054603 | 65 | 229 | 1.0 | 4.0 | 0.00 | 0.00 | 0.00 | 22 | 1011.0 |
| 20260831054504 | 65 | 229 | 2.0 | 4.0 | 0.00 | 0.00 | 0.00 | 22 | 1011.0 |
| 20260831054404 | 65 | 229 | 2.0 | 4.0 | 0.00 | 0.00 | 0.00 | 22 | 1011.0 |
| 20260831054303 | 65 | 225 | 2.0 | 4.0 | 0.00 | 0.00 | 0.00 | 22 | 1011.0 |
| 20260831054204 | 65 | 225 | 2.0 | 4.0 | 0.00 | 0.00 | 0.00 | 22 | 1011.0 |
| 20260831054104 | 65 | 225 | 3.0 | 4.0 | 0.00 | 0.00 | 0.00 | 22 | 1011.0 |
| 20260831054003 | 65 | 232 | 2.0 | 3.0 | 0.00 | 0.00 | 0.00 | 21 | 1011.0 |
| 20260831053903 | 65 | 233 | 1.0 | 2.0 | 0.00 | 0.00 | 0.00 | 21 | 1011.0 |
| 20260831053804 | 65 | 233 | 1.0 | 2.0 | 0.00 | 0.00 | 0.00 | 21 | 1011.0 |
| 20260831053704 | 65 | 0 | 0.0 | 2.0 | 0.00 | 0.00 | 0.00 | 21 | 1011.0 |
| 20260831053603 | 65 | 233 | 1.0 | 2.0 | 0.00 | 0.00 | 0.00 | 21 | 1011.1 |
| 20260831053503 | 65 | 234 | 1.0 | 2.0 | 0.00 | 0.00 | 0.00 | 21 | 1011.1 |
| 20260831053404 | 65 | 235 | 1.0 | 2.0 | 0.00 | 0.00 | 0.00 | 21 | 1011.0 |
| 20260831053304 | 65 | 237 | 1.0 | 2.0 | 0.00 | 0.00 | 0.00 | 21 | 1010.9 |
| 20260831053204 | 65 | 241 | 2.0 | 2.0 | 0.00 | 0.00 | 0.00 | 21 | 1011.0 |
| 20260831053104 | 65 | 246 | 2.0 | 2.0 | 0.00 | 0.00 | 0.00 | 21 | 1011.0 |
| 20260831053003 | 65 | 225 | 1.0 | 2.0 | 0.00 | 0.00 | 0.00 | 20 | 1011.0 |
| 20260831052904 | 66 | 225 | 2.0 | 2.0 | 0.00 | 0.00 | 0.00 | 21 | 1011.1 |
| 20260831052804 | 66 | 0 | 0.0 | 2.0 | 0.00 | 0.00 | 0.00 | 21 | 1011.1 |
| 20260831052704 | 66 | 0 | 0.0 | 0.0 | 0.00 | 0.00 | 0.00 | 21 | 1011.1 |
| 20260831052603 | 66 | 0 | 0.0 | 0.0 | 0.00 | 0.00 | 0.00 | 21 | 1011.0 |
| 20260831052504 | 66 | 0 | 0.0 | 1.0 | 0.00 | 0.00 | 0.00 | 20 | 1011.1 |
| 20260831052404 | 66 | 0 | 0.0 | 1.0 | 0.00 | 0.00 | 0.00 | 20 | 1011.0 |
| 20260831052306 | 67 | 0 | 0.0 | 2.0 | 0.00 | 0.00 | 0.00 | 19 | 1011.0 |
| 20260831052204 | 67 | 0 | 0.0 | 3.0 | 0.00 | 0.00 | 0.00 | 19 | 1011.0 |
| 20260831052104 | 67 | 0 | 0.0 | 3.0 | 0.00 | 0.00 | 0.00 | 19 | 1011.1 |
| 20260831052003 | 67 | 0 | 0.0 | 4.0 | 0.00 | 0.00 | 0.00 | 19 | 1011.2 |
| 20260831051904 | 67 | 0 | 0.0 | 4.0 | 0.00 | 0.00 | 0.00 | 19 | 1011.1 |
| 20260831051804 | 67 | 0 | 0.0 | 4.0 | 0.00 | 0.00 | 0.00 | 19 | 1011.2 |
| 20260831051703 | 67 | 0 | 0.0 | 4.0 | 0.00 | 0.00 | 0.00 | 19 | 1011.2 |
| 20260831051603 | 67 | 0 | 0.0 | 4.0 | 0.00 | 0.00 | 0.00 | 19 | 1011.2 |
| 20260831051504 | 67 | 0 | 0.0 | 4.0 | 0.00 | 0.00 | 0.00 | 19 | 1011.2 |
| 20260831051403 | 67 | 0 | 0.0 | 4.0 | 0.00 | 0.00 | 0.00 | 19 | 1011.2 |
| 20260831051304 | 67 | 1 | 1.0 | 4.0 | 0.00 | 0.00 | 0.00 | 19 | 1011.2 |
| 20260831051204 | 67 | 4 | 1.0 | 4.0 | 0.00 | 0.00 | 0.00 | 19 | 1011.1 |
| 20260831051104 | 67 | 1 | 1.0 | 4.0 | 0.00 | 0.00 | 0.00 | 19 | 1011.2 |
| 20260831051003 | 67 | 1 | 1.0 | 4.0 | 0.00 | 0.00 | 0.00 | 19 | 1011.2 |
| 20260831050904 | 67 | 354 | 2.0 | 4.0 | 0.00 | 0.00 | 0.00 | 19 | 1011.2 |
| 20260831050804 | 67 | 347 | 2.0 | 4.0 | 0.00 | 0.00 | 0.00 | 19 | 1011.3 |
| 20260831050704 | 67 | 342 | 2.0 | 4.0 | 0.00 | 0.00 | 0.00 | 20 | 1011.2 |
| 20260831050604 | 66 | 334 | 2.0 | 4.0 | 0.00 | 0.00 | 0.00 | 20 | 1011.2 |
| 20260831050504 | 66 | 334 | 2.0 | 5.0 | 0.00 | 0.00 | 0.00 | 20 | 1011.3 |
| 20260831050404 | 66 | 328 | 2.0 | 5.0 | 0.00 | 0.00 | 0.00 | 20 | 1011.3 |
| 20260831050304 | 66 | 332 | 2.0 | 5.0 | 0.00 | 0.00 | 0.00 | 20 | 1011.3 |
| 20260831050203 | 66 | 327 | 2.0 | 5.0 | 0.00 | 0.00 | 0.00 | 20 | 1011.2 |
| 20260831050103 | 66 | 320 | 2.0 | 5.0 | 0.00 | 0.00 | 0.00 | 20 | 1011.3 |
| 20260831050004 | 66 | 316 | 2.0 | 5.0 | 0.00 | 0.00 | 0.00 | 21 | 1011.2 |
| 20260831045804 | 66 | 319 | 1.0 | 5.0 | 0.00 | 0.00 | 0.00 | 21 | 1011.2 |
| 20260831045704 | 66 | 323 | 1.0 | 5.0 | 0.00 | 0.00 | 0.00 | 21 | 1011.2 |
| 20260831045604 | 66 | 325 | 2.0 | 5.0 | 0.00 | 0.00 | 0.00 | 21 | 1011.3 |
| 20260831045504 | 65 | 318 | 2.0 | 5.0 | 0.00 | 0.00 | 0.00 | 21 | 1011.3 |
| 20260831045404 | 65 | 317 | 3.0 | 5.0 | 0.00 | 0.00 | 0.00 | 21 | 1011.3 |
| 20260831044703 | 66 | 0 | 0.0 | 2.0 | 0.00 | 0.00 | 0.00 | 20 | 1011.2 |
| 20260831044604 | 66 | 0 | 0.0 | 2.0 | 0.00 | 0.00 | 0.00 | 20 | 1011.2 |
| 20260831044504 | 66 | 0 | 0.0 | 2.0 | 0.00 | 0.00 | 0.00 | 20 | 1011.3 |
| 20260831044404 | 66 | 0 | 0.0 | 2.0 | 0.00 | 0.00 | 0.00 | 20 | 1011.3 |
| 20260831044304 | 66 | 339 | 1.0 | 2.0 | 0.00 | 0.00 | 0.00 | 20 | 1011.3 |
| 20260831044203 | 66 | 346 | 1.0 | 2.0 | 0.00 | 0.00 | 0.00 | 20 | 1011.2 |
| 20260831044104 | 66 | 345 | 1.0 | 2.0 | 0.00 | 0.00 | 0.00 | 20 | 1011.3 |
| 20260831044004 | 66 | 351 | 2.0 | 2.0 | 0.00 | 0.00 | 0.00 | 20 | 1011.2 |
| 20260831043903 | 66 | 1 | 1.0 | 2.0 | 0.00 | 0.00 | 0.00 | 20 | 1011.3 |
| 20260831043803 | 67 | 351 | 1.0 | 2.0 | 0.00 | 0.00 | 0.00 | 20 | 1011.3 |
| 20260831043704 | 67 | 0 | 0.0 | 2.0 | 0.00 | 0.00 | 0.00 | 18 | 1011.3 |
| 20260831043604 | 67 | 0 | 0.0 | 2.0 | 0.00 | 0.00 | 0.00 | 18 | 1011.2 |
| 20260831043504 | 67 | 0 | 0.0 | 2.0 | 0.00 | 0.00 | 0.00 | 18 | 1011.2 |
| 20260831043404 | 67 | 0 | 0.0 | 2.0 | 0.00 | 0.00 | 0.00 | 18 | 1011.3 |
| 20260831043303 | 67 | 0 | 0.0 | 2.0 | 0.00 | 0.00 | 0.00 | 18 | 1011.2 |
| 20260831043004 | 67 | 0 | 0.0 | 2.0 | 0.00 | 0.00 | 0.00 | 18 | 1011.2 |
| 20260831042903 | 68 | 315 | 1.0 | 2.0 | 0.00 | 0.00 | 0.00 | 18 | 1011.2 |
| 20260831042804 | 68 | 0 | 0.0 | 2.0 | 0.00 | 0.00 | 0.00 | 18 | 1011.2 |
| 20260831042704 | 68 | 0 | 0.0 | 2.0 | 0.00 | 0.00 | 0.00 | 18 | 1011.2 |
| 20260831042603 | 68 | 0 | 0.0 | 2.0 | 0.00 | 0.00 | 0.00 | 18 | 1011.2 |